Time,TemperatureF,DewpointF,PressureIn,WindDirection,WindDirectionDegrees,WindSpeedMPH,WindSpeedGustMPH,Humidity,HourlyPrecipIn,Conditions,Clouds,dailyrainin,SoftwareType,DateUTC
2013-07-23 00:01:00,76.8,59.5,28.94,South,191,4.0,4.0,55,0.00,,,0.00,VWS V13.01,2013-07-23 05:01:00,
2013-07-23 00:02:00,76.8,59.5,28.94,SSW,192,5.4,5.4,55,0.00,,,0.00,VWS V13.01,2013-07-23 05:02:00,
2013-07-23 00:06:00,76.6,59.3,28.94,SSW,196,5.4,5.4,55,0.00,,,0.00,VWS V13.01,2013-07-23 05:06:00,
2013-07-23 00:07:00,76.6,59.3,28.94,South,184,5.8,5.8,55,0.00,,,0.00,VWS V13.01,2013-07-23 05:07:00,
2013-07-23 00:11:00,76.5,59.1,28.94,South,188,5.8,5.8,55,0.00,,,0.00,VWS V13.01,2013-07-23 05:11:00,
2013-07-23 00:12:00,76.5,59.1,28.94,South,187,6.3,6.3,55,0.00,,,0.00,VWS V13.01,2013-07-23 05:12:00,
2013-07-23 00:16:00,76.1,58.8,28.94,South,179,5.8,5.8,55,0.00,,,0.00,VWS V13.01,2013-07-23 05:16:00,
2013-07-23 00:17:00,76.1,58.8,28.94,South,183,5.4,5.4,55,0.00,,,0.00,VWS V13.01,2013-07-23 05:17:00,
2013-07-23 00:21:00,76.1,58.8,28.94,South,189,4.0,4.0,55,0.00,,,0.00,VWS V13.01,2013-07-23 05:21:00,
2013-07-23 00:22:00,76.1,58.8,28.94,SSW,192,5.4,5.4,55,0.00,,,0.00,VWS V13.01,2013-07-23 05:22:00,
2013-07-23 00:27:00,75.9,58.6,28.94,South,189,4.9,4.9,55,0.00,,,0.00,VWS V13.01,2013-07-23 05:27:00,
2013-07-23 00:32:00,75.7,58.4,28.94,South,182,5.8,5.8,55,0.00,,,0.00,VWS V13.01,2013-07-23 05:32:00,
2013-07-23 00:37:00,75.9,58.6,28.94,SSW,201,5.4,5.4,55,0.00,,,0.00,VWS V13.01,2013-07-23 05:37:00,
2013-07-23 00:42:00,75.9,58.6,28.94,South,185,4.9,4.9,55,0.00,,,0.00,VWS V13.01,2013-07-23 05:42:00,
2013-07-23 00:43:00,75.7,58.4,28.94,South,182,5.4,5.4,55,0.00,,,0.00,VWS V13.01,2013-07-23 05:43:00,
2013-07-23 00:47:00,75.7,58.4,28.94,South,188,4.9,4.9,55,0.00,,,0.00,VWS V13.01,2013-07-23 05:47:00,
2013-07-23 00:48:00,75.7,58.4,28.94,SSW,193,4.9,4.9,55,0.00,,,0.00,VWS V13.01,2013-07-23 05:48:00,
2013-07-23 00:52:00,75.7,58.4,28.94,South,182,4.0,4.0,55,0.00,,,0.00,VWS V13.01,2013-07-23 05:52:00,
2013-07-23 00:53:00,75.7,58.4,28.94,South,183,3.6,3.6,55,0.00,,,0.00,VWS V13.01,2013-07-23 05:53:00,
2013-07-23 00:57:00,75.6,58.3,28.94,SSW,198,3.1,3.1,55,0.00,,,0.00,VWS V13.01,2013-07-23 05:57:00,
2013-07-23 00:58:00,75.6,58.3,28.94,SSW,198,3.1,3.1,55,0.00,,,0.00,VWS V13.01,2013-07-23 05:58:00,
2013-07-23 01:02:00,75.4,58.1,28.94,South,187,3.1,3.1,55,0.00,,,0.00,VWS V13.01,2013-07-23 06:02:00,
2013-07-23 01:03:00,75.4,58.1,28.94,South,189,3.6,3.6,55,0.00,,,0.00,VWS V13.01,2013-07-23 06:03:00,
2013-07-23 01:07:00,75.2,57.9,28.94,South,180,2.2,2.2,55,0.00,,,0.00,VWS V13.01,2013-07-23 06:07:00,
2013-07-23 01:08:00,75.2,57.9,28.94,South,180,0.0,0.0,55,0.00,,,0.00,VWS V13.01,2013-07-23 06:08:00,
2013-07-23 01:12:00,75.4,58.1,28.94,South,183,3.6,3.6,55,0.00,,,0.00,VWS V13.01,2013-07-23 06:12:00,
2013-07-23 01:13:00,75.4,58.1,28.94,South,183,3.6,3.6,55,0.00,,,0.00,VWS V13.01,2013-07-23 06:13:00,
2013-07-23 01:17:00,75.4,58.1,28.94,South,191,4.0,4.0,55,0.00,,,0.00,VWS V13.01,2013-07-23 06:17:00,
2013-07-23 01:18:00,75.4,58.1,28.94,South,191,3.6,3.6,55,0.00,,,0.00,VWS V13.01,2013-07-23 06:18:00,
2013-07-23 01:22:00,75.2,57.9,28.94,South,190,4.0,4.0,55,0.00,,,0.00,VWS V13.01,2013-07-23 06:22:00,
2013-07-23 01:23:00,75.2,63.5,28.94,South,191,4.0,4.0,67,0.00,,,0.00,VWS V13.01,2013-07-23 06:23:00,
2013-07-23 01:27:00,75.0,65.8,28.94,South,189,5.4,5.4,73,0.00,,,0.00,VWS V13.01,2013-07-23 06:27:00,
2013-07-23 01:28:00,75.0,65.8,28.94,South,190,5.4,5.4,73,0.00,,,0.00,VWS V13.01,2013-07-23 06:28:00,
2013-07-23 01:29:00,75.0,65.8,28.94,South,190,4.9,4.9,73,0.00,,,0.00,VWS V13.01,2013-07-23 06:29:00,
2013-07-23 01:32:00,74.8,65.6,28.94,SSW,193,2.2,2.2,73,0.00,,,0.00,VWS V13.01,2013-07-23 06:32:00,
2013-07-23 01:33:00,74.8,65.6,28.94,SSW,193,2.7,2.7,73,0.00,,,0.00,VWS V13.01,2013-07-23 06:33:00,
2013-07-23 01:37:00,74.8,65.6,28.94,SSW,192,3.1,3.1,73,0.00,,,0.00,VWS V13.01,2013-07-23 06:37:00,
2013-07-23 01:38:00,74.8,65.6,28.94,SSW,192,3.1,3.1,73,0.00,,,0.00,VWS V13.01,2013-07-23 06:38:00,
2013-07-23 01:43:00,74.8,65.6,28.97,SSW,192,2.7,2.7,73,0.00,,,0.00,VWS V13.01,2013-07-23 06:43:00,
2013-07-23 01:44:00,74.7,65.4,28.97,SSW,192,0.0,0.0,73,0.00,,,0.00,VWS V13.01,2013-07-23 06:44:00,
2013-07-23 01:48:00,74.5,65.3,28.97,SSW,192,0.0,0.0,73,0.00,,,0.00,VWS V13.01,2013-07-23 06:48:00,
2013-07-23 01:49:00,74.3,65.1,28.97,SSW,192,0.0,0.0,73,0.00,,,0.00,VWS V13.01,2013-07-23 06:49:00,
2013-07-23 01:53:00,73.9,69.2,28.97,SSW,192,0.0,0.0,85,0.00,,,0.00,VWS V13.01,2013-07-23 06:53:00,
2013-07-23 01:54:00,74.1,69.3,28.97,SSW,192,0.0,0.0,85,0.00,,,0.00,VWS V13.01,2013-07-23 06:54:00,
2013-07-23 01:58:00,74.5,65.3,28.97,SSW,192,0.0,0.0,73,0.00,,,0.00,VWS V13.01,2013-07-23 06:58:00,
2013-07-23 01:59:00,74.5,65.3,28.97,SSW,192,0.0,0.0,73,0.00,,,0.00,VWS V13.01,2013-07-23 06:59:00,
2013-07-23 02:03:00,74.5,65.3,28.97,SSW,192,0.0,0.0,73,0.00,,,0.00,VWS V13.01,2013-07-23 07:03:00,
2013-07-23 02:04:00,74.5,65.3,28.97,SSW,192,0.0,0.0,73,0.00,,,0.00,VWS V13.01,2013-07-23 07:04:00,
2013-07-23 02:08:00,74.1,64.9,28.97,SSW,192,0.0,0.0,73,0.00,,,0.00,VWS V13.01,2013-07-23 07:08:00,
2013-07-23 02:09:00,74.1,64.9,28.97,SSW,192,0.0,0.0,73,0.00,,,0.00,VWS V13.01,2013-07-23 07:09:00,
2013-07-23 02:13:00,73.6,64.4,28.97,SSW,192,0.0,0.0,73,0.00,,,0.00,VWS V13.01,2013-07-23 07:13:00,
2013-07-23 02:14:00,73.6,64.4,28.97,SSW,192,0.0,0.0,73,0.00,,,0.00,VWS V13.01,2013-07-23 07:14:00,
2013-07-23 02:18:00,73.2,70.4,28.97,SSW,192,0.0,0.0,91,0.00,,,0.00,VWS V13.01,2013-07-23 07:18:00,
2013-07-23 02:19:00,73.2,70.4,28.97,SSW,192,0.0,0.0,91,0.00,,,0.00,VWS V13.01,2013-07-23 07:19:00,
2013-07-23 02:23:00,74.5,69.7,28.97,SSW,192,0.0,0.0,85,0.00,,,0.00,VWS V13.01,2013-07-23 07:23:00,
2013-07-23 02:24:00,74.5,69.7,28.97,SSW,192,0.0,0.0,85,0.00,,,0.00,VWS V13.01,2013-07-23 07:24:00,
2013-07-23 02:28:00,74.5,69.7,28.94,SSW,192,0.0,0.0,85,0.00,,,0.00,VWS V13.01,2013-07-23 07:28:00,
2013-07-23 02:29:00,74.5,69.7,28.94,SSW,192,0.0,0.0,85,0.00,,,0.00,VWS V13.01,2013-07-23 07:29:00,
2013-07-23 02:33:00,74.3,69.5,28.94,SSW,192,0.0,0.0,85,0.00,,,0.00,VWS V13.01,2013-07-23 07:33:00,
2013-07-23 02:34:00,74.1,69.3,28.94,SSW,192,0.0,0.0,85,0.00,,,0.00,VWS V13.01,2013-07-23 07:34:00,
2013-07-23 02:38:00,74.1,69.3,28.94,SSW,192,0.0,0.0,85,0.00,,,0.00,VWS V13.01,2013-07-23 07:38:00,
2013-07-23 02:39:00,74.1,69.3,28.94,SSW,192,0.0,0.0,85,0.00,,,0.00,VWS V13.01,2013-07-23 07:39:00,
2013-07-23 02:43:00,73.8,69.0,28.94,SSW,192,0.0,0.0,85,0.00,,,0.00,VWS V13.01,2013-07-23 07:43:00,
2013-07-23 02:44:00,73.8,69.0,28.94,SSW,192,0.0,0.0,85,0.00,,,0.00,VWS V13.01,2013-07-23 07:44:00,
2013-07-23 02:48:00,73.6,73.6,28.94,SSW,192,0.0,0.0,100,0.00,,,0.00,VWS V13.01,2013-07-23 07:48:00,
2013-07-23 02:49:00,73.6,73.6,28.94,SSW,192,0.0,0.0,100,0.00,,,0.00,VWS V13.01,2013-07-23 07:49:00,
2013-07-23 02:50:00,73.6,73.6,28.94,SSW,192,0.0,0.0,100,0.00,,,0.00,VWS V13.01,2013-07-23 07:50:00,
2013-07-23 02:53:00,73.9,73.9,28.94,SSW,192,0.0,0.0,100,0.00,,,0.00,VWS V13.01,2013-07-23 07:53:00,
2013-07-23 02:54:00,73.9,73.9,28.94,SSW,192,0.0,0.0,100,0.00,,,0.00,VWS V13.01,2013-07-23 07:54:00,
2013-07-23 02:55:00,73.8,73.8,28.94,SSW,192,0.0,0.0,100,0.00,,,0.00,VWS V13.01,2013-07-23 07:55:00,
2013-07-23 02:58:00,73.8,73.8,28.94,SSW,192,0.0,0.0,100,0.00,,,0.00,VWS V13.01,2013-07-23 07:58:00,
2013-07-23 02:59:00,73.8,73.8,28.94,SSW,192,0.0,0.0,100,0.00,,,0.00,VWS V13.01,2013-07-23 07:59:00,
2013-07-23 03:00:00,73.8,73.8,28.94,SSW,192,0.0,0.0,100,0.00,,,0.00,VWS V13.01,2013-07-23 08:00:00,
2013-07-23 03:04:00,73.8,73.8,28.94,SSW,192,0.0,0.0,100,0.00,,,0.00,VWS V13.01,2013-07-23 08:04:00,
2013-07-23 03:05:00,73.8,73.8,28.94,SSW,194,0.0,0.0,100,0.00,,,0.00,VWS V13.01,2013-07-23 08:05:00,
2013-07-23 03:09:00,73.8,73.8,28.94,SSW,194,3.1,3.1,100,0.00,,,0.00,VWS V13.01,2013-07-23 08:09:00,
2013-07-23 03:10:00,73.8,73.8,28.91,South,189,4.9,4.9,100,0.00,,,0.00,VWS V13.01,2013-07-23 08:10:00,
2013-07-23 03:14:00,73.6,73.6,28.91,South,190,0.0,0.0,100,0.00,,,0.00,VWS V13.01,2013-07-23 08:14:00,
2013-07-23 03:15:00,73.6,73.6,28.91,South,190,2.2,2.2,100,0.00,,,0.00,VWS V13.01,2013-07-23 08:15:00,
2013-07-23 03:19:00,73.6,73.6,28.91,South,190,3.1,3.1,100,0.00,,,0.00,VWS V13.01,2013-07-23 08:19:00,
2013-07-23 03:20:00,73.6,73.6,28.91,South,190,3.6,3.6,100,0.00,,,0.00,VWS V13.01,2013-07-23 08:20:00,
2013-07-23 03:24:00,73.4,73.4,28.91,South,190,2.7,2.7,100,0.00,,,0.00,VWS V13.01,2013-07-23 08:24:00,
2013-07-23 03:25:00,73.4,73.4,28.91,South,190,2.7,2.7,100,0.00,,,0.00,VWS V13.01,2013-07-23 08:25:00,
2013-07-23 03:29:00,73.2,73.2,28.91,South,190,3.6,3.6,100,0.00,,,0.00,VWS V13.01,2013-07-23 08:29:00,
2013-07-23 03:30:00,73.4,73.4,28.91,South,190,4.0,4.0,100,0.00,,,0.00,VWS V13.01,2013-07-23 08:30:00,
2013-07-23 03:34:00,73.6,73.6,28.91,South,187,4.0,4.0,100,0.00,,,0.00,VWS V13.01,2013-07-23 08:34:00,
2013-07-23 03:35:00,73.4,73.4,28.91,South,187,4.9,4.9,100,0.00,,,0.00,VWS V13.01,2013-07-23 08:35:00,
2013-07-23 03:36:00,73.4,73.4,28.91,South,187,4.5,4.5,100,0.00,,,0.00,VWS V13.01,2013-07-23 08:36:00,
2013-07-23 03:39:00,73.2,73.2,28.91,South,188,4.9,4.9,100,0.00,,,0.00,VWS V13.01,2013-07-23 08:39:00,
2013-07-23 03:40:00,73.2,73.2,28.91,South,189,5.4,5.4,100,0.00,,,0.00,VWS V13.01,2013-07-23 08:40:00,
2013-07-23 03:41:00,73.2,73.2,28.91,South,189,4.5,4.5,100,0.00,,,0.00,VWS V13.01,2013-07-23 08:41:00,
2013-07-23 03:44:00,73.2,73.2,28.91,South,189,3.6,3.6,100,0.00,,,0.00,VWS V13.01,2013-07-23 08:44:00,
2013-07-23 03:45:00,73.2,73.2,28.91,South,189,4.0,4.0,100,0.00,,,0.00,VWS V13.01,2013-07-23 08:45:00,
2013-07-23 03:46:00,73.4,73.4,28.91,South,180,5.4,5.4,100,0.00,,,0.00,VWS V13.01,2013-07-23 08:46:00,
2013-07-23 03:49:00,73.4,68.6,28.91,South,188,4.9,4.9,85,0.00,,,0.00,VWS V13.01,2013-07-23 08:49:00,
2013-07-23 03:50:00,73.4,68.6,28.91,SSW,192,5.4,5.4,85,0.00,,,0.00,VWS V13.01,2013-07-23 08:50:00,
2013-07-23 03:51:00,73.6,68.8,28.91,South,191,4.9,4.9,85,0.00,,,0.00,VWS V13.01,2013-07-23 08:51:00,
2013-07-23 03:54:00,73.6,68.8,28.91,South,177,4.5,4.5,85,0.00,,,0.00,VWS V13.01,2013-07-23 08:54:00,
2013-07-23 03:55:00,73.6,68.8,28.91,SSW,194,4.9,4.9,85,0.00,,,0.00,VWS V13.01,2013-07-23 08:55:00,
2013-07-23 03:56:00,73.6,68.8,28.91,South,189,5.4,5.4,85,0.00,,,0.00,VWS V13.01,2013-07-23 08:56:00,
2013-07-23 03:59:00,73.6,68.8,28.91,South,189,5.8,5.8,85,0.00,,,0.00,VWS V13.01,2013-07-23 08:59:00,
2013-07-23 04:00:00,73.6,68.8,28.91,South,189,3.6,3.6,85,0.00,,,0.00,VWS V13.01,2013-07-23 09:00:00,
2013-07-23 04:01:00,73.6,68.8,28.91,South,189,4.0,4.0,85,0.00,,,0.00,VWS V13.01,2013-07-23 09:01:00,
2013-07-23 04:04:00,73.2,70.4,28.91,South,189,3.1,3.1,91,0.00,,,0.00,VWS V13.01,2013-07-23 09:04:00,
2013-07-23 04:05:00,73.2,70.4,28.91,South,189,2.7,2.7,91,0.00,,,0.00,VWS V13.01,2013-07-23 09:05:00,
2013-07-23 04:06:00,73.2,70.4,28.91,South,189,0.0,0.0,91,0.00,,,0.00,VWS V13.01,2013-07-23 09:06:00,
2013-07-23 04:09:00,73.0,73.1,28.91,South,188,3.1,3.1,100,0.00,,,0.00,VWS V13.01,2013-07-23 09:09:00,
2013-07-23 04:10:00,73.2,70.4,28.91,South,188,3.1,3.1,91,0.00,,,0.00,VWS V13.01,2013-07-23 09:10:00,
2013-07-23 04:11:00,73.2,70.4,28.91,South,188,2.7,2.7,91,0.00,,,0.00,VWS V13.01,2013-07-23 09:11:00,
2013-07-23 04:14:00,73.0,70.3,28.91,South,188,0.0,0.0,91,0.00,,,0.00,VWS V13.01,2013-07-23 09:14:00,
2013-07-23 04:15:00,73.0,70.3,28.91,NNW,344,0.0,0.0,91,0.00,,,0.00,VWS V13.01,2013-07-23 09:15:00,
2013-07-23 04:16:00,72.9,72.9,28.91,North,353,0.0,0.0,100,0.00,,,0.00,VWS V13.01,2013-07-23 09:16:00,
2013-07-23 04:19:00,72.9,72.9,28.91,North,353,0.0,0.0,100,0.00,,,0.00,VWS V13.01,2013-07-23 09:19:00,
2013-07-23 04:20:00,72.7,72.7,28.91,North,353,0.0,0.0,100,0.00,,,0.00,VWS V13.01,2013-07-23 09:20:00,
2013-07-23 04:21:00,72.7,72.7,28.91,North,353,0.0,0.0,100,0.00,,,0.00,VWS V13.01,2013-07-23 09:21:00,
2013-07-23 04:24:00,72.3,72.3,28.91,North,353,0.0,0.0,100,0.00,,,0.00,VWS V13.01,2013-07-23 09:24:00,
2013-07-23 04:25:00,72.3,72.3,28.91,North,353,0.0,0.0,100,0.00,,,0.00,VWS V13.01,2013-07-23 09:25:00,
2013-07-23 04:26:00,72.3,72.3,28.91,North,353,0.0,0.0,100,0.00,,,0.00,VWS V13.01,2013-07-23 09:26:00,
2013-07-23 04:30:00,72.0,72.0,28.91,North,353,0.0,0.0,100,0.00,,,0.00,VWS V13.01,2013-07-23 09:30:00,
2013-07-23 04:31:00,71.8,71.8,28.91,North,353,0.0,0.0,100,0.00,,,0.00,VWS V13.01,2013-07-23 09:31:00,
2013-07-23 04:35:00,71.6,71.6,28.91,North,353,0.0,0.0,100,0.00,,,0.00,VWS V13.01,2013-07-23 09:35:00,
2013-07-23 04:36:00,71.6,71.6,28.91,North,353,0.0,0.0,100,0.00,,,0.00,VWS V13.01,2013-07-23 09:36:00,
2013-07-23 04:40:00,71.2,71.2,28.91,SSW,209,0.0,0.0,100,0.00,,,0.00,VWS V13.01,2013-07-23 09:40:00,
2013-07-23 04:41:00,71.4,71.4,28.91,SSW,198,0.0,0.0,100,0.00,,,0.00,VWS V13.01,2013-07-23 09:41:00,
2013-07-23 04:45:00,72.1,72.2,28.91,South,186,5.4,5.4,100,0.00,,,0.00,VWS V13.01,2013-07-23 09:45:00,
2013-07-23 04:46:00,72.1,72.2,28.91,South,186,4.9,4.9,100,0.00,,,0.00,VWS V13.01,2013-07-23 09:46:00,
2013-07-23 04:50:00,72.0,72.0,28.91,South,186,0.0,0.0,100,0.00,,,0.00,VWS V13.01,2013-07-23 09:50:00,
2013-07-23 04:51:00,71.8,71.8,28.91,South,186,0.0,0.0,100,0.00,,,0.00,VWS V13.01,2013-07-23 09:51:00,
2013-07-23 04:55:00,71.2,71.2,28.91,South,186,0.0,0.0,100,0.00,,,0.00,VWS V13.01,2013-07-23 09:55:00,
2013-07-23 04:56:00,71.2,71.2,28.91,South,186,0.0,0.0,100,0.00,,,0.00,VWS V13.01,2013-07-23 09:56:00,
2013-07-23 04:57:00,71.2,71.2,28.91,South,186,0.0,0.0,100,0.00,,,0.00,VWS V13.01,2013-07-23 09:57:00,
2013-07-23 05:00:00,70.9,70.9,28.91,South,186,0.0,0.0,100,0.00,,,0.00,VWS V13.01,2013-07-23 10:00:00,
2013-07-23 05:01:00,70.9,70.9,28.91,South,186,0.0,0.0,100,0.00,,,0.00,VWS V13.01,2013-07-23 10:01:00,
2013-07-23 05:02:00,70.9,70.9,28.91,South,186,0.0,0.0,100,0.00,,,0.00,VWS V13.01,2013-07-23 10:02:00,
2013-07-23 05:05:00,71.1,71.1,28.91,South,186,0.0,0.0,100,0.00,,,0.00,VWS V13.01,2013-07-23 10:05:00,
2013-07-23 05:06:00,71.2,71.2,28.91,South,186,0.0,0.0,100,0.00,,,0.00,VWS V13.01,2013-07-23 10:06:00,
2013-07-23 05:07:00,71.2,71.2,28.91,South,186,0.0,0.0,100,0.00,,,0.00,VWS V13.01,2013-07-23 10:07:00,
2013-07-23 05:10:00,71.4,71.4,28.91,South,186,0.0,0.0,100,0.00,,,0.00,VWS V13.01,2013-07-23 10:10:00,
2013-07-23 05:11:00,71.4,71.4,28.91,South,186,0.0,0.0,100,0.00,,,0.00,VWS V13.01,2013-07-23 10:11:00,
2013-07-23 05:12:00,71.4,71.4,28.91,South,186,0.0,0.0,100,0.00,,,0.00,VWS V13.01,2013-07-23 10:12:00,
2013-07-23 05:15:00,71.4,71.4,28.91,South,186,0.0,0.0,100,0.00,,,0.00,VWS V13.01,2013-07-23 10:15:00,
2013-07-23 05:16:00,71.4,71.4,28.91,South,186,0.0,0.0,100,0.00,,,0.00,VWS V13.01,2013-07-23 10:16:00,
2013-07-23 05:17:00,71.4,71.4,28.91,South,186,0.0,0.0,100,0.00,,,0.00,VWS V13.01,2013-07-23 10:17:00,
2013-07-23 05:20:00,71.4,71.4,28.91,South,186,0.0,0.0,100,0.00,,,0.00,VWS V13.01,2013-07-23 10:20:00,
2013-07-23 05:21:00,71.4,71.4,28.91,South,186,0.0,0.0,100,0.00,,,0.00,VWS V13.01,2013-07-23 10:21:00,
2013-07-23 05:22:00,71.6,71.6,28.91,South,187,5.4,5.4,100,0.00,,,0.00,VWS V13.01,2013-07-23 10:22:00,
2013-07-23 05:25:00,71.8,71.8,28.91,SSW,194,6.3,6.3,100,0.00,,,0.00,VWS V13.01,2013-07-23 10:25:00,
2013-07-23 05:26:00,71.8,71.8,28.91,SSW,193,5.8,5.8,100,0.00,,,0.00,VWS V13.01,2013-07-23 10:26:00,
2013-07-23 05:27:00,71.6,71.6,28.91,South,186,5.8,5.8,100,0.00,,,0.00,VWS V13.01,2013-07-23 10:27:00,
2013-07-23 05:30:00,71.8,71.8,28.91,South,183,5.8,5.8,100,0.00,,,0.00,VWS V13.01,2013-07-23 10:30:00,
2013-07-23 05:31:00,71.6,71.6,28.91,South,190,6.3,6.3,100,0.00,,,0.00,VWS V13.01,2013-07-23 10:31:00,
2013-07-23 05:32:00,71.6,71.6,28.91,SSW,195,6.3,6.3,100,0.00,,,0.00,VWS V13.01,2013-07-23 10:32:00,
2013-07-23 05:35:00,71.6,71.6,28.91,South,184,5.4,5.4,100,0.00,,,0.00,VWS V13.01,2013-07-23 10:35:00,
2013-07-23 05:36:00,71.6,71.6,28.91,South,186,5.8,5.8,100,0.00,,,0.00,VWS V13.01,2013-07-23 10:36:00,
2013-07-23 05:37:00,71.6,71.6,28.91,SSW,199,5.4,5.4,100,0.00,,,0.00,VWS V13.01,2013-07-23 10:37:00,
2013-07-23 05:40:00,71.2,71.2,28.91,South,176,5.8,5.8,100,0.00,,,0.00,VWS V13.01,2013-07-23 10:40:00,
2013-07-23 05:41:00,71.2,71.2,28.91,SSW,197,5.8,5.8,100,0.00,,,0.00,VWS V13.01,2013-07-23 10:41:00,
2013-07-23 05:42:00,71.2,71.2,28.91,SSW,193,6.3,6.3,100,0.00,,,0.00,VWS V13.01,2013-07-23 10:42:00,
2013-07-23 05:46:00,71.2,71.2,28.91,South,189,5.8,5.8,100,0.00,,,0.00,VWS V13.01,2013-07-23 10:46:00,
2013-07-23 05:47:00,71.2,71.2,28.91,South,178,5.4,5.4,100,0.00,,,0.00,VWS V13.01,2013-07-23 10:47:00,
2013-07-23 05:51:00,71.4,71.4,28.91,South,181,5.8,5.8,100,0.00,,,0.00,VWS V13.01,2013-07-23 10:51:00,
2013-07-23 05:52:00,71.6,71.6,28.91,South,185,5.8,5.8,100,0.00,,,0.00,VWS V13.01,2013-07-23 10:52:00,
2013-07-23 05:56:00,71.6,71.6,28.91,South,190,6.3,6.3,100,0.00,,,0.00,VWS V13.01,2013-07-23 10:56:00,
2013-07-23 05:57:00,71.6,71.6,28.91,SSW,193,6.7,6.7,100,0.00,,,0.00,VWS V13.01,2013-07-23 10:57:00,
2013-07-23 06:01:00,71.4,71.4,28.91,SSW,192,6.3,6.3,100,0.00,,,0.00,VWS V13.01,2013-07-23 11:01:00,
2013-07-23 06:02:00,71.6,71.6,28.91,South,183,4.9,4.9,100,0.00,,,0.00,VWS V13.01,2013-07-23 11:02:00,
2013-07-23 06:06:00,71.6,71.6,28.91,SSW,193,6.3,6.3,100,0.00,,,0.00,VWS V13.01,2013-07-23 11:06:00,
2013-07-23 06:07:00,71.6,71.6,28.91,South,190,5.4,5.4,100,0.00,,,0.00,VWS V13.01,2013-07-23 11:07:00,
2013-07-23 06:11:00,71.6,71.6,28.91,South,184,6.3,6.3,100,0.00,,,0.00,VWS V13.01,2013-07-23 11:11:00,
2013-07-23 06:12:00,71.6,71.6,28.91,South,187,5.4,5.4,100,0.00,,,0.00,VWS V13.01,2013-07-23 11:12:00,
2013-07-23 06:16:00,71.8,71.8,28.91,South,189,5.8,5.8,100,0.00,,,0.00,VWS V13.01,2013-07-23 11:16:00,
2013-07-23 06:17:00,71.8,71.8,28.91,South,188,5.8,5.8,100,0.00,,,0.00,VWS V13.01,2013-07-23 11:17:00,
2013-07-23 06:21:00,71.4,71.4,28.91,South,186,4.9,4.9,100,0.00,,,0.00,VWS V13.01,2013-07-23 11:21:00,
2013-07-23 06:22:00,71.4,71.4,28.91,South,191,6.3,6.3,100,0.00,,,0.00,VWS V13.01,2013-07-23 11:22:00,
2013-07-23 06:26:00,71.2,71.2,28.91,South,189,4.5,4.5,100,0.00,,,0.00,VWS V13.01,2013-07-23 11:26:00,
2013-07-23 06:27:00,71.2,71.2,28.91,South,189,4.9,4.9,100,0.00,,,0.00,VWS V13.01,2013-07-23 11:27:00,
2013-07-23 06:31:00,71.4,71.4,28.91,South,191,4.0,4.0,100,0.00,,,0.00,VWS V13.01,2013-07-23 11:31:00,
2013-07-23 06:32:00,71.6,71.6,28.91,South,191,3.6,3.6,100,0.00,,,0.00,VWS V13.01,2013-07-23 11:32:00,
2013-07-23 06:36:00,71.8,71.8,28.91,South,185,6.3,6.3,100,0.00,,,0.00,VWS V13.01,2013-07-23 11:36:00,
2013-07-23 06:37:00,71.8,71.8,28.91,South,185,5.4,5.4,100,0.00,,,0.00,VWS V13.01,2013-07-23 11:37:00,
2013-07-23 06:41:00,71.8,71.8,28.91,South,189,4.0,4.0,100,0.00,,,0.00,VWS V13.01,2013-07-23 11:41:00,
2013-07-23 06:42:00,71.8,71.8,28.91,South,189,5.4,5.4,100,0.00,,,0.00,VWS V13.01,2013-07-23 11:42:00,
2013-07-23 06:46:00,72.5,72.5,28.91,SSW,195,4.0,4.0,100,0.00,,,0.00,VWS V13.01,2013-07-23 11:46:00,
2013-07-23 06:47:00,72.5,72.5,28.91,South,186,5.4,5.4,100,0.00,,,0.00,VWS V13.01,2013-07-23 11:47:00,
2013-07-23 06:48:00,72.7,72.7,28.91,SSW,196,4.0,4.0,100,0.00,,,0.00,VWS V13.01,2013-07-23 11:48:00,
2013-07-23 06:51:00,73.0,73.1,28.91,South,184,5.4,5.4,100,0.00,,,0.00,VWS V13.01,2013-07-23 11:51:00,
2013-07-23 06:52:00,73.0,73.1,28.91,South,184,5.4,5.4,100,0.00,,,0.00,VWS V13.01,2013-07-23 11:52:00,
2013-07-23 06:53:00,73.0,73.1,28.91,South,191,5.4,5.4,100,0.00,,,0.00,VWS V13.01,2013-07-23 11:53:00,
2013-07-23 06:56:00,73.4,73.4,28.91,South,185,5.4,5.4,100,0.00,,,0.00,VWS V13.01,2013-07-23 11:56:00,
2013-07-23 06:57:00,73.4,73.4,28.91,SSW,195,5.4,5.4,100,0.00,,,0.00,VWS V13.01,2013-07-23 11:57:00,
2013-07-23 06:58:00,73.6,73.6,28.91,SSW,193,4.9,4.9,100,0.00,,,0.00,VWS V13.01,2013-07-23 11:58:00,
2013-07-23 07:01:00,74.1,74.1,28.91,South,184,4.0,4.0,100,0.00,,,0.00,VWS V13.01,2013-07-23 12:01:00,
2013-07-23 07:02:00,74.1,74.1,28.91,South,184,3.6,3.6,100,0.00,,,0.00,VWS V13.01,2013-07-23 12:02:00,
2013-07-23 07:03:00,74.5,74.5,28.91,South,184,2.7,2.7,100,0.00,,,0.00,VWS V13.01,2013-07-23 12:03:00,
2013-07-23 07:06:00,75.4,75.4,28.91,South,184,3.6,3.6,100,0.00,,,0.00,VWS V13.01,2013-07-23 12:06:00,
2013-07-23 07:07:00,75.4,75.4,28.91,South,184,4.0,4.0,100,0.00,,,0.00,VWS V13.01,2013-07-23 12:07:00,
2013-07-23 07:08:00,75.4,75.4,28.91,South,184,3.6,3.6,100,0.00,,,0.00,VWS V13.01,2013-07-23 12:08:00,
2013-07-23 07:11:00,75.2,75.2,28.91,South,190,4.0,4.0,100,0.00,,,0.00,VWS V13.01,2013-07-23 12:11:00,
2013-07-23 07:12:00,75.2,75.2,28.91,South,190,3.6,3.6,100,0.00,,,0.00,VWS V13.01,2013-07-23 12:12:00,
2013-07-23 07:13:00,75.4,75.4,28.91,South,190,3.1,3.1,100,0.00,,,0.00,VWS V13.01,2013-07-23 12:13:00,
2013-07-23 07:16:00,75.9,75.9,28.91,South,190,4.9,4.9,100,0.00,,,0.00,VWS V13.01,2013-07-23 12:16:00,
2013-07-23 07:17:00,75.7,75.8,28.91,South,190,4.9,4.9,100,0.00,,,0.00,VWS V13.01,2013-07-23 12:17:00,
2013-07-23 07:18:00,75.7,75.8,28.91,South,190,4.0,4.0,100,0.00,,,0.00,VWS V13.01,2013-07-23 12:18:00,
2013-07-23 07:21:00,76.3,76.3,28.91,South,190,2.7,2.7,100,0.00,,,0.00,VWS V13.01,2013-07-23 12:21:00,
2013-07-23 07:22:00,76.5,76.5,28.91,South,190,2.7,2.7,100,0.00,,,0.00,VWS V13.01,2013-07-23 12:22:00,
2013-07-23 07:23:00,76.6,76.7,28.91,South,190,3.1,3.1,100,0.00,,,0.00,VWS V13.01,2013-07-23 12:23:00,
2013-07-23 07:26:00,77.4,76.4,28.91,South,190,2.7,2.7,97,0.00,,,0.00,VWS V13.01,2013-07-23 12:26:00,
2013-07-23 07:27:00,77.4,76.4,28.91,South,190,3.6,3.6,97,0.00,,,0.00,VWS V13.01,2013-07-23 12:27:00,
2013-07-23 07:28:00,77.4,76.4,28.91,South,190,2.7,2.7,97,0.00,,,0.00,VWS V13.01,2013-07-23 12:28:00,
2013-07-23 07:32:00,79.0,71.9,28.91,South,190,0.0,0.0,79,0.00,,,0.00,VWS V13.01,2013-07-23 12:32:00,
2013-07-23 07:33:00,79.2,72.1,28.91,South,190,0.0,0.0,79,0.00,,,0.00,VWS V13.01,2013-07-23 12:33:00,
2013-07-23 07:37:00,79.0,71.9,28.91,South,190,0.0,0.0,79,0.00,,,0.00,VWS V13.01,2013-07-23 12:37:00,
2013-07-23 07:38:00,79.2,72.1,28.91,South,190,0.0,0.0,79,0.00,,,0.00,VWS V13.01,2013-07-23 12:38:00,
2013-07-23 07:42:00,80.2,68.3,28.91,South,190,0.0,0.0,67,0.00,,,0.00,VWS V13.01,2013-07-23 12:42:00,
2013-07-23 07:43:00,80.6,65.9,28.91,South,190,0.0,0.0,61,0.00,,,0.00,VWS V13.01,2013-07-23 12:43:00,
2013-07-23 07:47:00,80.1,68.1,28.91,South,190,0.0,0.0,67,0.00,,,0.00,VWS V13.01,2013-07-23 12:47:00,
2013-07-23 07:48:00,80.2,68.3,28.91,South,190,0.0,0.0,67,0.00,,,0.00,VWS V13.01,2013-07-23 12:48:00,
2013-07-23 07:49:00,80.4,68.5,28.91,South,190,0.0,0.0,67,0.00,,,0.00,VWS V13.01,2013-07-23 12:49:00,
2013-07-23 07:52:00,80.8,66.1,28.91,South,187,4.0,4.0,61,0.00,,,0.00,VWS V13.01,2013-07-23 12:52:00,
2013-07-23 07:53:00,80.6,65.9,28.91,South,184,5.4,5.4,61,0.00,,,0.00,VWS V13.01,2013-07-23 12:53:00,
2013-07-23 07:54:00,80.4,68.5,28.91,South,184,4.9,4.9,67,0.00,,,0.00,VWS V13.01,2013-07-23 12:54:00,
2013-07-23 07:57:00,82.2,67.4,28.91,SSW,194,3.6,3.6,61,0.00,,,0.00,VWS V13.01,2013-07-23 12:57:00,
2013-07-23 07:58:00,82.4,67.6,28.91,SSW,194,4.0,4.0,61,0.00,,,0.00,VWS V13.01,2013-07-23 12:58:00,
2013-07-23 07:59:00,82.8,67.9,28.91,South,185,0.0,0.0,61,0.00,,,0.00,VWS V13.01,2013-07-23 12:59:00,
2013-07-23 08:02:00,83.8,59.0,28.91,WNW,299,4.0,4.0,43,0.00,,,0.00,VWS V13.01,2013-07-23 13:02:00,
2013-07-23 08:03:00,83.8,59.0,28.91,WNW,293,4.0,4.0,43,0.00,,,0.00,VWS V13.01,2013-07-23 13:03:00,
2013-07-23 08:04:00,84.0,59.1,28.91,West,268,0.0,0.0,43,0.00,,,0.00,VWS V13.01,2013-07-23 13:04:00,
2013-07-23 08:07:00,85.1,60.1,28.91,NNE,22,2.7,2.7,43,0.00,,,0.00,VWS V13.01,2013-07-23 13:07:00,
2013-07-23 08:08:00,85.3,60.3,28.91,NW,306,3.6,3.6,43,0.00,,,0.00,VWS V13.01,2013-07-23 13:08:00,
2013-07-23 08:09:00,85.5,60.4,28.91,NW,306,0.0,0.0,43,0.00,,,0.00,VWS V13.01,2013-07-23 13:09:00,
2013-07-23 08:12:00,86.7,61.6,28.94,NW,306,0.0,0.0,43,0.00,,,0.00,VWS V13.01,2013-07-23 13:12:00,
2013-07-23 08:13:00,86.7,61.6,28.94,NNW,345,0.0,0.0,43,0.00,,,0.00,VWS V13.01,2013-07-23 13:13:00,
2013-07-23 08:14:00,86.7,61.6,28.94,North,353,0.0,0.0,43,0.00,,,0.00,VWS V13.01,2013-07-23 13:14:00,
2013-07-23 08:17:00,87.1,61.9,28.94,WNW,297,0.0,0.0,43,0.00,,,0.00,VWS V13.01,2013-07-23 13:17:00,
2013-07-23 08:18:00,87.4,62.2,28.94,WNW,297,0.0,0.0,43,0.00,,,0.00,VWS V13.01,2013-07-23 13:18:00,
2013-07-23 08:19:00,87.8,58.3,28.94,WNW,297,0.0,0.0,37,0.00,,,0.00,VWS V13.01,2013-07-23 13:19:00,
2013-07-23 08:22:00,88.9,59.3,28.94,WNW,297,0.0,0.0,37,0.00,,,0.00,VWS V13.01,2013-07-23 13:22:00,
2013-07-23 08:23:00,89.1,59.4,28.94,WNW,297,0.0,0.0,37,0.00,,,0.00,VWS V13.01,2013-07-23 13:23:00,
2013-07-23 08:24:00,88.7,59.1,28.94,NNW,335,0.0,0.0,37,0.00,,,0.00,VWS V13.01,2013-07-23 13:24:00,
2013-07-23 08:28:00,88.2,58.6,28.94,North,357,0.0,0.0,37,0.00,,,0.00,VWS V13.01,2013-07-23 13:28:00,
2013-07-23 08:29:00,88.3,58.8,28.94,North,357,0.0,0.0,37,0.00,,,0.00,VWS V13.01,2013-07-23 13:29:00,
2013-07-23 08:33:00,89.1,59.4,28.94,NE,53,0.0,0.0,37,0.00,,,0.00,VWS V13.01,2013-07-23 13:33:00,
2013-07-23 08:34:00,90.1,60.4,28.94,NE,53,0.0,0.0,37,0.00,,,0.00,VWS V13.01,2013-07-23 13:34:00,
2013-07-23 08:38:00,90.5,60.7,28.94,NW,307,0.0,0.0,37,0.00,,,0.00,VWS V13.01,2013-07-23 13:38:00,
2013-07-23 08:39:00,90.5,60.7,28.94,NNW,333,0.0,0.0,37,0.00,,,0.00,VWS V13.01,2013-07-23 13:39:00,
2013-07-23 08:43:00,90.3,60.5,28.94,WNW,291,0.0,0.0,37,0.00,,,0.00,VWS V13.01,2013-07-23 13:43:00,
2013-07-23 08:44:00,90.1,60.4,28.94,WNW,300,0.0,0.0,37,0.00,,,0.00,VWS V13.01,2013-07-23 13:44:00,
2013-07-23 08:48:00,91.4,56.5,28.94,NW,309,0.0,0.0,31,0.00,,,0.00,VWS V13.01,2013-07-23 13:48:00,
2013-07-23 08:49:00,91.8,56.9,28.94,NW,308,0.0,0.0,31,0.00,,,0.00,VWS V13.01,2013-07-23 13:49:00,
2013-07-23 08:53:00,91.4,56.5,28.94,WNW,291,0.0,0.0,31,0.00,,,0.00,VWS V13.01,2013-07-23 13:53:00,
2013-07-23 08:54:00,91.2,61.3,28.94,WNW,301,0.0,0.0,37,0.00,,,0.00,VWS V13.01,2013-07-23 13:54:00,
2013-07-23 08:58:00,91.0,61.2,28.97,NNE,12,5.4,5.4,37,0.00,,,0.00,VWS V13.01,2013-07-23 13:58:00,
2013-07-23 08:59:00,90.7,60.9,28.97,WNW,295,3.6,3.6,37,0.00,,,0.00,VWS V13.01,2013-07-23 13:59:00,
2013-07-23 09:03:00,91.2,61.3,28.97,NW,315,0.0,0.0,37,0.00,,,0.00,VWS V13.01,2013-07-23 14:03:00,
2013-07-23 09:04:00,91.0,61.2,28.97,NNE,13,0.0,0.0,37,0.00,,,0.00,VWS V13.01,2013-07-23 14:04:00,
2013-07-23 09:05:00,91.2,61.3,28.97,NNW,330,0.0,0.0,37,0.00,,,0.00,VWS V13.01,2013-07-23 14:05:00,
2013-07-23 09:08:00,91.0,61.2,28.97,North,2,3.1,3.1,37,0.00,,,0.00,VWS V13.01,2013-07-23 14:08:00,
2013-07-23 09:09:00,91.0,61.2,28.97,West,281,7.6,7.6,37,0.00,,,0.00,VWS V13.01,2013-07-23 14:09:00,
2013-07-23 09:13:00,91.4,56.5,28.97,NNW,330,0.0,0.0,31,0.00,,,0.00,VWS V13.01,2013-07-23 14:13:00,
2013-07-23 09:14:00,91.9,57.0,28.97,NNW,330,0.0,0.0,31,0.00,,,0.00,VWS V13.01,2013-07-23 14:14:00,
2013-07-23 09:15:00,91.6,56.7,28.97,WNW,298,3.1,3.1,31,0.00,,,0.00,VWS V13.01,2013-07-23 14:15:00,
2013-07-23 09:18:00,91.9,57.0,28.97,NW,304,2.7,2.7,31,0.00,,,0.00,VWS V13.01,2013-07-23 14:18:00,
2013-07-23 09:19:00,92.1,57.2,28.97,WNW,294,4.9,4.9,31,0.00,,,0.00,VWS V13.01,2013-07-23 14:19:00,
2013-07-23 09:20:00,91.9,57.0,28.97,North,0,4.9,4.9,31,0.00,,,0.00,VWS V13.01,2013-07-23 14:20:00,
2013-07-23 09:23:00,91.9,57.0,28.97,North,0,4.9,4.9,31,0.00,,,0.00,VWS V13.01,2013-07-23 14:23:00,
2013-07-23 09:24:00,91.9,57.0,28.97,North,357,3.6,3.6,31,0.00,,,0.00,VWS V13.01,2013-07-23 14:24:00,
2013-07-23 09:25:00,91.9,57.0,28.97,North,357,0.0,0.0,31,0.00,,,0.00,VWS V13.01,2013-07-23 14:25:00,
2013-07-23 09:28:00,92.8,57.8,28.97,North,0,2.2,2.2,31,0.00,,,0.00,VWS V13.01,2013-07-23 14:28:00,
2013-07-23 09:29:00,92.8,57.8,28.97,NW,325,4.0,4.0,31,0.00,,,0.00,VWS V13.01,2013-07-23 14:29:00,
2013-07-23 09:30:00,93.0,57.9,28.97,NW,311,2.7,2.7,31,0.00,,,0.00,VWS V13.01,2013-07-23 14:30:00,
2013-07-23 09:33:00,93.2,58.1,28.97,NW,322,2.2,2.2,31,0.00,,,0.00,VWS V13.01,2013-07-23 14:33:00,
2013-07-23 09:34:00,93.4,58.2,28.97,NNW,340,0.0,0.0,31,0.00,,,0.00,VWS V13.01,2013-07-23 14:34:00,
2013-07-23 09:35:00,93.4,58.2,28.97,WNW,295,0.0,0.0,31,0.00,,,0.00,VWS V13.01,2013-07-23 14:35:00,
2013-07-23 09:38:00,91.8,56.9,28.97,North,353,4.9,4.9,31,0.00,,,0.00,VWS V13.01,2013-07-23 14:38:00,
2013-07-23 09:39:00,91.8,56.9,28.97,WNW,288,5.4,5.4,31,0.00,,,0.00,VWS V13.01,2013-07-23 14:39:00,
2013-07-23 09:40:00,91.2,61.3,29.00,WNW,289,5.4,5.4,37,0.00,,,0.00,VWS V13.01,2013-07-23 14:40:00,
2013-07-23 09:43:00,91.4,56.5,29.00,North,353,0.0,0.0,31,0.00,,,0.00,VWS V13.01,2013-07-23 14:43:00,
2013-07-23 09:44:00,91.8,56.9,29.00,North,0,4.5,4.5,31,0.00,,,0.00,VWS V13.01,2013-07-23 14:44:00,
2013-07-23 09:45:00,91.2,61.3,29.00,NNW,340,4.0,4.0,37,0.00,,,0.00,VWS V13.01,2013-07-23 14:45:00,
2013-07-23 09:48:00,91.4,56.5,29.00,WSW,254,5.4,5.4,31,0.00,,,0.00,VWS V13.01,2013-07-23 14:48:00,
2013-07-23 09:49:00,91.2,61.3,29.00,North,349,5.4,5.4,37,0.00,,,0.00,VWS V13.01,2013-07-23 14:49:00,
2013-07-23 09:50:00,90.9,61.0,29.00,WNW,285,3.6,3.6,37,0.00,,,0.00,VWS V13.01,2013-07-23 14:50:00,
2013-07-23 09:53:00,91.0,61.2,29.00,West,277,0.0,0.0,37,0.00,,,0.00,VWS V13.01,2013-07-23 14:53:00,
2013-07-23 09:54:00,91.0,61.2,29.00,West,277,0.0,0.0,37,0.00,,,0.00,VWS V13.01,2013-07-23 14:54:00,
2013-07-23 09:55:00,91.2,61.3,29.00,North,10,0.0,0.0,37,0.00,,,0.00,VWS V13.01,2013-07-23 14:55:00,
2013-07-23 09:58:00,90.9,61.0,28.97,NNE,17,4.0,4.0,37,0.00,,,0.00,VWS V13.01,2013-07-23 14:58:00,
2013-07-23 09:59:00,90.9,61.0,28.97,NW,323,2.2,2.2,37,0.00,,,0.00,VWS V13.01,2013-07-23 14:59:00,
2013-07-23 10:00:00,90.7,60.9,28.97,WNW,287,4.0,4.0,37,0.00,,,0.00,VWS V13.01,2013-07-23 15:00:00,
2013-07-23 10:03:00,89.6,59.9,28.97,North,357,5.8,5.8,37,0.00,,,0.00,VWS V13.01,2013-07-23 15:03:00,
2013-07-23 10:04:00,89.8,60.1,28.97,NW,313,2.2,2.2,37,0.00,,,0.00,VWS V13.01,2013-07-23 15:04:00,
2013-07-23 10:05:00,89.8,60.1,28.97,West,279,3.1,3.1,37,0.00,,,0.00,VWS V13.01,2013-07-23 15:05:00,
2013-07-23 10:08:00,90.9,61.0,28.97,NE,48,0.0,0.0,37,0.00,,,0.00,VWS V13.01,2013-07-23 15:08:00,
2013-07-23 10:09:00,90.9,61.0,28.97,NNE,29,0.0,0.0,37,0.00,,,0.00,VWS V13.01,2013-07-23 15:09:00,
2013-07-23 10:10:00,91.8,56.9,28.97,North,0,0.0,0.0,31,0.00,,,0.00,VWS V13.01,2013-07-23 15:10:00,
2013-07-23 10:13:00,90.5,60.7,28.97,WNW,287,3.6,3.6,37,0.00,,,0.00,VWS V13.01,2013-07-23 15:13:00,
2013-07-23 10:14:00,91.2,61.3,28.97,WNW,302,5.4,5.4,37,0.00,,,0.00,VWS V13.01,2013-07-23 15:14:00,
2013-07-23 10:15:00,91.2,61.3,28.97,NNE,29,2.7,2.7,37,0.00,,,0.00,VWS V13.01,2013-07-23 15:15:00,
2013-07-23 10:19:00,91.4,56.5,28.97,NNW,348,2.2,2.2,31,0.00,,,0.00,VWS V13.01,2013-07-23 15:19:00,
2013-07-23 10:20:00,91.8,56.9,28.97,North,353,0.0,0.0,31,0.00,,,0.00,VWS V13.01,2013-07-23 15:20:00,
2013-07-23 10:24:00,93.4,58.2,28.97,NNE,28,0.0,0.0,31,0.00,,,0.00,VWS V13.01,2013-07-23 15:24:00,
2013-07-23 10:25:00,93.9,58.7,28.97,SE,129,0.0,0.0,31,0.00,,,0.00,VWS V13.01,2013-07-23 15:25:00,
2013-07-23 10:29:00,93.7,58.6,28.97,North,0,4.0,4.0,31,0.00,,,0.00,VWS V13.01,2013-07-23 15:29:00,
2013-07-23 10:30:00,93.7,58.6,28.97,North,9,2.7,2.7,31,0.00,,,0.00,VWS V13.01,2013-07-23 15:30:00,
2013-07-23 10:34:00,93.7,58.6,28.97,West,277,6.3,6.3,31,0.00,,,0.00,VWS V13.01,2013-07-23 15:34:00,
2013-07-23 10:35:00,93.4,58.2,28.97,North,6,4.9,4.9,31,0.00,,,0.00,VWS V13.01,2013-07-23 15:35:00,
2013-07-23 10:39:00,92.1,57.2,28.97,WNW,294,3.6,3.6,31,0.00,,,0.00,VWS V13.01,2013-07-23 15:39:00,
2013-07-23 10:40:00,91.4,56.5,28.97,NNW,345,6.3,6.3,31,0.00,,,0.00,VWS V13.01,2013-07-23 15:40:00,
2013-07-23 10:44:00,91.2,61.3,28.97,WNW,291,0.0,0.0,37,0.00,,,0.00,VWS V13.01,2013-07-23 15:44:00,
2013-07-23 10:45:00,91.4,56.5,28.97,NW,316,5.4,5.4,31,0.00,,,0.00,VWS V13.01,2013-07-23 15:45:00,
2013-07-23 10:49:00,92.7,57.6,28.97,North,353,5.8,5.8,31,0.00,,,0.00,VWS V13.01,2013-07-23 15:49:00,
2013-07-23 10:50:00,92.8,57.8,28.97,NNW,348,2.7,2.7,31,0.00,,,0.00,VWS V13.01,2013-07-23 15:50:00,
2013-07-23 10:54:00,91.6,56.7,28.97,WNW,288,3.6,3.6,31,0.00,,,0.00,VWS V13.01,2013-07-23 15:54:00,
2013-07-23 10:55:00,91.2,61.3,28.97,North,353,6.3,6.3,37,0.00,,,0.00,VWS V13.01,2013-07-23 15:55:00,
2013-07-23 10:59:00,91.6,56.7,28.97,NNE,14,3.6,3.6,31,0.00,,,0.00,VWS V13.01,2013-07-23 15:59:00,
2013-07-23 11:00:00,91.6,56.7,28.97,North,357,2.2,2.2,31,0.00,,,0.00,VWS V13.01,2013-07-23 16:00:00,
2013-07-23 11:05:00,93.4,58.2,28.97,NNW,344,8.3,8.3,31,0.00,,,0.00,VWS V13.01,2013-07-23 16:05:00,
2013-07-23 11:10:00,91.8,56.9,28.97,North,0,5.4,5.4,31,0.00,,,0.00,VWS V13.01,2013-07-23 16:10:00,
2013-07-23 11:15:00,89.6,59.9,28.97,NNE,19,2.2,2.2,37,0.00,,,0.00,VWS V13.01,2013-07-23 16:15:00,
2013-07-23 11:20:00,88.3,58.8,28.97,North,353,0.0,0.0,37,0.00,,,0.00,VWS V13.01,2013-07-23 16:20:00,
2013-07-23 11:25:00,88.2,58.6,29.00,NNW,345,3.6,3.6,37,0.00,,,0.00,VWS V13.01,2013-07-23 16:25:00,
2013-07-23 11:30:00,87.8,58.3,29.00,WNW,302,5.8,5.8,37,0.00,,,0.00,VWS V13.01,2013-07-23 16:30:00,
2013-07-23 11:35:00,86.9,61.7,29.00,North,0,0.0,0.0,43,0.00,,,0.00,VWS V13.01,2013-07-23 16:35:00,
2013-07-23 11:36:00,86.7,61.6,29.00,North,0,4.9,4.9,43,0.00,,,0.00,VWS V13.01,2013-07-23 16:36:00,
2013-07-23 11:40:00,85.8,60.8,29.00,North,11,3.6,3.6,43,0.00,,,0.00,VWS V13.01,2013-07-23 16:40:00,
2013-07-23 11:41:00,85.8,60.8,29.00,WNW,297,5.8,5.8,43,0.00,,,0.00,VWS V13.01,2013-07-23 16:41:00,
2013-07-23 11:45:00,86.5,61.4,29.00,ESE,114,3.6,3.6,43,0.00,,,0.00,VWS V13.01,2013-07-23 16:45:00,
2013-07-23 11:46:00,86.5,61.4,29.00,NNE,22,3.6,3.6,43,0.00,,,0.00,VWS V13.01,2013-07-23 16:46:00,
2013-07-23 11:50:00,86.4,61.2,29.00,NNW,337,4.0,4.0,43,0.00,,,0.00,VWS V13.01,2013-07-23 16:50:00,
2013-07-23 11:51:00,86.5,61.4,29.00,NE,49,0.0,0.0,43,0.00,,,0.00,VWS V13.01,2013-07-23 16:51:00,
2013-07-23 11:55:00,86.4,61.2,29.00,NNW,340,3.6,3.6,43,0.00,,,0.00,VWS V13.01,2013-07-23 16:55:00,
2013-07-23 11:56:00,86.4,61.2,29.00,North,0,6.3,6.3,43,0.00,,,0.00,VWS V13.01,2013-07-23 16:56:00,
2013-07-23 12:00:00,85.6,60.6,29.00,East,95,4.9,4.9,43,0.00,,,0.00,VWS V13.01,2013-07-23 17:00:00,
2013-07-23 12:01:00,85.5,60.4,29.00,North,0,4.9,4.9,43,0.00,,,0.00,VWS V13.01,2013-07-23 17:01:00,
2013-07-23 12:05:00,85.3,60.3,29.00,East,82,3.1,3.1,43,0.00,,,0.00,VWS V13.01,2013-07-23 17:05:00,
2013-07-23 12:06:00,85.3,60.3,29.00,NNW,331,8.1,8.1,43,0.00,,,0.00,VWS V13.01,2013-07-23 17:06:00,
2013-07-23 12:10:00,85.8,60.8,29.00,NNW,348,3.6,3.6,43,0.00,,,0.00,VWS V13.01,2013-07-23 17:10:00,
2013-07-23 12:11:00,86.0,60.9,29.00,NE,45,0.0,0.0,43,0.00,,,0.00,VWS V13.01,2013-07-23 17:11:00,
2013-07-23 12:15:00,86.2,61.1,29.00,North,0,5.8,5.8,43,0.00,,,0.00,VWS V13.01,2013-07-23 17:15:00,
2013-07-23 12:16:00,86.2,61.1,29.00,NNW,333,3.6,3.6,43,0.00,,,0.00,VWS V13.01,2013-07-23 17:16:00,
2013-07-23 12:20:00,85.5,60.4,29.00,NNE,21,2.7,2.7,43,0.00,,,0.00,VWS V13.01,2013-07-23 17:20:00,
2013-07-23 12:21:00,86.0,60.9,29.00,NNE,31,3.6,3.6,43,0.00,,,0.00,VWS V13.01,2013-07-23 17:21:00,
2013-07-23 12:25:00,87.1,61.9,29.00,North,357,5.8,5.8,43,0.00,,,0.00,VWS V13.01,2013-07-23 17:25:00,
2013-07-23 12:26:00,87.3,62.1,29.00,WNW,303,8.1,8.1,43,0.00,,,0.00,VWS V13.01,2013-07-23 17:26:00,
2013-07-23 12:30:00,87.6,62.4,29.00,North,3,7.6,7.6,43,0.00,,,0.00,VWS V13.01,2013-07-23 17:30:00,
2013-07-23 12:31:00,87.6,62.4,29.00,NNW,345,6.3,6.3,43,0.00,,,0.00,VWS V13.01,2013-07-23 17:31:00,
2013-07-23 12:35:00,88.2,58.6,29.00,NNE,14,3.1,3.1,37,0.00,,,0.00,VWS V13.01,2013-07-23 17:35:00,
2013-07-23 12:36:00,88.5,59.0,29.00,NNE,23,3.1,3.1,37,0.00,,,0.00,VWS V13.01,2013-07-23 17:36:00,
2013-07-23 12:40:00,89.1,59.4,29.00,NNE,25,4.0,4.0,37,0.00,,,0.00,VWS V13.01,2013-07-23 17:40:00,
2013-07-23 12:41:00,88.9,59.3,29.00,North,357,4.0,4.0,37,0.00,,,0.00,VWS V13.01,2013-07-23 17:41:00,
2013-07-23 12:45:00,87.8,58.3,29.00,ENE,72,0.0,0.0,37,0.00,,,0.00,VWS V13.01,2013-07-23 17:45:00,
2013-07-23 12:46:00,87.8,58.3,29.00,North,0,5.4,5.4,37,0.00,,,0.00,VWS V13.01,2013-07-23 17:46:00,
2013-07-23 12:47:00,87.8,58.3,29.00,NNW,333,5.8,5.8,37,0.00,,,0.00,VWS V13.01,2013-07-23 17:47:00,
2013-07-23 12:51:00,87.4,62.2,29.00,North,357,6.7,6.7,43,0.00,,,0.00,VWS V13.01,2013-07-23 17:51:00,
2013-07-23 12:52:00,87.6,62.4,29.00,NE,39,2.7,2.7,43,0.00,,,0.00,VWS V13.01,2013-07-23 17:52:00,
2013-07-23 12:53:00,87.4,62.2,29.00,North,0,4.0,4.0,43,0.00,,,0.00,VWS V13.01,2013-07-23 17:53:00,
2013-07-23 12:56:00,87.6,62.4,29.00,NNW,331,4.0,4.0,43,0.00,,,0.00,VWS V13.01,2013-07-23 17:56:00,
2013-07-23 12:57:00,87.6,62.4,29.00,NE,39,3.6,3.6,43,0.00,,,0.00,VWS V13.01,2013-07-23 17:57:00,
2013-07-23 12:58:00,87.6,62.4,29.00,NE,41,2.7,2.7,43,0.00,,,0.00,VWS V13.01,2013-07-23 17:58:00,
2013-07-23 13:01:00,87.6,62.4,29.00,NE,41,5.4,5.4,43,0.00,,,0.00,VWS V13.01,2013-07-23 18:01:00,
2013-07-23 13:02:00,88.0,58.5,29.00,NNW,346,4.0,4.0,37,0.00,,,0.00,VWS V13.01,2013-07-23 18:02:00,
2013-07-23 13:04:00,88.2,58.6,29.00,North,0,2.2,2.2,37,0.00,,,0.00,VWS V13.01,2013-07-23 18:04:00,
2013-07-23 13:07:00,88.2,58.6,29.00,NNE,28,3.1,3.1,37,0.00,,,0.00,VWS V13.01,2013-07-23 18:07:00,
2013-07-23 13:09:00,88.2,58.6,29.00,North,357,0.0,0.0,37,0.00,,,0.00,VWS V13.01,2013-07-23 18:09:00,
2013-07-23 13:10:00,88.2,58.6,29.00,North,357,2.2,2.2,37,0.00,,,0.00,VWS V13.01,2013-07-23 18:10:00,
2013-07-23 13:12:00,88.2,58.6,29.00,NE,39,4.9,4.9,37,0.00,,,0.00,VWS V13.01,2013-07-23 18:12:00,
2013-07-23 13:15:00,88.2,58.6,29.00,NNE,14,0.0,0.0,37,0.00,,,0.00,VWS V13.01,2013-07-23 18:15:00,
2013-07-23 13:17:00,87.8,58.3,29.00,North,357,4.9,4.9,37,0.00,,,0.00,VWS V13.01,2013-07-23 18:17:00,
2013-07-23 13:18:00,88.0,58.5,29.00,North,353,3.1,3.1,37,0.00,,,0.00,VWS V13.01,2013-07-23 18:18:00,
2013-07-23 13:20:00,88.0,58.5,29.00,North,4,0.0,0.0,37,0.00,,,0.00,VWS V13.01,2013-07-23 18:20:00,
2013-07-23 13:21:00,88.0,58.5,29.00,North,353,0.0,0.0,37,0.00,,,0.00,VWS V13.01,2013-07-23 18:21:00,
2013-07-23 13:22:00,88.0,58.5,29.00,NNW,348,0.0,0.0,37,0.00,,,0.00,VWS V13.01,2013-07-23 18:22:00,
2013-07-23 13:23:00,88.0,58.5,29.00,ENE,58,3.1,3.1,37,0.00,,,0.00,VWS V13.01,2013-07-23 18:23:00,
2013-07-23 13:26:00,87.6,62.4,29.00,North,349,3.6,3.6,43,0.00,,,0.00,VWS V13.01,2013-07-23 18:26:00,
2013-07-23 13:27:00,87.6,62.4,29.00,NNE,17,3.1,3.1,43,0.00,,,0.00,VWS V13.01,2013-07-23 18:27:00,
2013-07-23 13:29:00,88.0,58.5,29.00,NW,310,4.9,4.9,37,0.00,,,0.00,VWS V13.01,2013-07-23 18:29:00,
2013-07-23 13:31:00,88.3,58.8,29.00,WNW,286,4.9,4.9,37,0.00,,,0.00,VWS V13.01,2013-07-23 18:31:00,
2013-07-23 13:32:00,88.3,58.8,29.00,NW,320,2.2,2.2,37,0.00,,,0.00,VWS V13.01,2013-07-23 18:32:00,
2013-07-23 13:35:00,88.7,59.1,29.00,NNE,17,4.9,4.9,37,0.00,,,0.00,VWS V13.01,2013-07-23 18:35:00,
2013-07-23 13:37:00,88.5,59.0,29.00,NE,36,2.7,2.7,37,0.00,,,0.00,VWS V13.01,2013-07-23 18:37:00,
2013-07-23 13:38:00,88.3,58.8,29.00,NNW,346,4.0,4.0,37,0.00,,,0.00,VWS V13.01,2013-07-23 18:38:00,
2013-07-23 13:40:00,88.7,59.1,29.00,North,7,5.8,5.8,37,0.00,,,0.00,VWS V13.01,2013-07-23 18:40:00,
2013-07-23 13:43:00,89.2,59.6,29.00,NNW,334,3.1,3.1,37,0.00,,,0.00,VWS V13.01,2013-07-23 18:43:00,
2013-07-23 13:44:00,89.4,59.7,29.00,NW,321,5.4,5.4,37,0.00,,,0.00,VWS V13.01,2013-07-23 18:44:00,
2013-07-23 13:45:00,90.0,60.2,29.00,NE,41,4.0,4.0,37,0.00,,,0.00,VWS V13.01,2013-07-23 18:45:00,
2013-07-23 13:49:00,89.8,60.1,29.00,NE,40,3.6,3.6,37,0.00,,,0.00,VWS V13.01,2013-07-23 18:49:00,
2013-07-23 13:52:00,89.8,60.1,29.00,North,9,6.3,6.3,37,0.00,,,0.00,VWS V13.01,2013-07-23 18:52:00,
2013-07-23 13:54:00,89.8,60.1,29.00,NNE,14,3.1,3.1,37,0.00,,,0.00,VWS V13.01,2013-07-23 18:54:00,
2013-07-23 13:57:00,90.9,61.0,28.97,NNE,17,0.0,0.0,37,0.00,,,0.00,VWS V13.01,2013-07-23 18:57:00,
2013-07-23 14:00:00,91.0,61.2,28.97,ENE,62,2.2,2.2,37,0.00,,,0.00,VWS V13.01,2013-07-23 19:00:00,
2013-07-23 14:03:00,91.4,56.5,28.97,ENE,75,4.0,4.0,31,0.00,,,0.00,VWS V13.01,2013-07-23 19:03:00,
2013-07-23 14:05:00,91.8,56.9,28.97,North,10,3.6,3.6,31,0.00,,,0.00,VWS V13.01,2013-07-23 19:05:00,
2013-07-23 14:06:00,91.6,56.7,28.97,NNW,331,2.7,2.7,31,0.00,,,0.00,VWS V13.01,2013-07-23 19:06:00,
2013-07-23 14:08:00,88.9,59.3,28.97,ESE,107,5.8,5.8,37,0.00,,,0.00,VWS V13.01,2013-07-23 19:08:00,
2013-07-23 14:10:00,90.0,60.2,28.97,East,86,2.7,2.7,37,0.00,,,0.00,VWS V13.01,2013-07-23 19:10:00,
2013-07-23 14:11:00,90.1,60.4,28.97,ENE,71,2.7,2.7,37,0.00,,,0.00,VWS V13.01,2013-07-23 19:11:00,
2013-07-23 14:13:00,90.5,60.7,28.97,ENE,62,4.0,4.0,37,0.00,,,0.00,VWS V13.01,2013-07-23 19:13:00,
2013-07-23 14:15:00,90.5,60.7,28.97,NNE,28,3.1,3.1,37,0.00,,,0.00,VWS V13.01,2013-07-23 19:15:00,
2013-07-23 14:16:00,90.1,60.4,28.97,NE,53,6.3,6.3,37,0.00,,,0.00,VWS V13.01,2013-07-23 19:16:00,
2013-07-23 14:17:00,90.0,60.2,28.97,NNW,342,0.0,0.0,37,0.00,,,0.00,VWS V13.01,2013-07-23 19:17:00,
2013-07-23 14:20:00,88.9,59.3,28.97,East,96,4.0,4.0,37,0.00,,,0.00,VWS V13.01,2013-07-23 19:20:00,
2013-07-23 14:21:00,88.9,59.3,28.97,NNE,24,3.6,3.6,37,0.00,,,0.00,VWS V13.01,2013-07-23 19:21:00,
2013-07-23 14:22:00,89.1,59.4,28.97,ENE,77,3.6,3.6,37,0.00,,,0.00,VWS V13.01,2013-07-23 19:22:00,
2013-07-23 14:26:00,89.4,59.7,28.97,ENE,78,5.8,5.8,37,0.00,,,0.00,VWS V13.01,2013-07-23 19:26:00,
2013-07-23 14:27:00,89.2,59.6,28.97,NE,35,4.0,4.0,37,0.00,,,0.00,VWS V13.01,2013-07-23 19:27:00,
2013-07-23 14:31:00,89.6,59.9,28.97,East,81,3.1,3.1,37,0.00,,,0.00,VWS V13.01,2013-07-23 19:31:00,
2013-07-23 14:32:00,89.6,59.9,28.97,NNE,31,4.0,4.0,37,0.00,,,0.00,VWS V13.01,2013-07-23 19:32:00,
2013-07-23 14:33:00,88.7,59.1,28.97,East,83,6.3,6.3,37,0.00,,,0.00,VWS V13.01,2013-07-23 19:33:00,
2013-07-23 14:37:00,88.5,59.0,28.97,NE,34,3.6,3.6,37,0.00,,,0.00,VWS V13.01,2013-07-23 19:37:00,
2013-07-23 14:39:00,88.5,59.0,28.97,NNE,27,3.6,3.6,37,0.00,,,0.00,VWS V13.01,2013-07-23 19:39:00,
2013-07-23 14:42:00,87.1,61.9,28.97,NE,42,3.1,3.1,43,0.00,,,0.00,VWS V13.01,2013-07-23 19:42:00,
2013-07-23 14:45:00,86.5,61.4,28.97,NE,46,5.4,5.4,43,0.00,,,0.00,VWS V13.01,2013-07-23 19:45:00,
2013-07-23 14:47:00,87.3,62.1,28.97,East,80,2.7,2.7,43,0.00,,,0.00,VWS V13.01,2013-07-23 19:47:00,
2013-07-23 14:48:00,87.3,62.1,28.97,East,89,2.7,2.7,43,0.00,,,0.00,VWS V13.01,2013-07-23 19:48:00,
2013-07-23 14:50:00,87.4,62.2,28.97,ENE,74,4.0,4.0,43,0.00,,,0.00,VWS V13.01,2013-07-23 19:50:00,
2013-07-23 14:53:00,88.3,58.8,28.97,NE,51,0.0,0.0,37,0.00,,,0.00,VWS V13.01,2013-07-23 19:53:00,
2013-07-23 14:55:00,88.9,59.3,28.97,ENE,65,4.9,4.9,37,0.00,,,0.00,VWS V13.01,2013-07-23 19:55:00,
2013-07-23 14:59:00,88.7,59.1,28.97,ENE,60,0.0,0.0,37,0.00,,,0.00,VWS V13.01,2013-07-23 19:59:00,
2013-07-23 15:00:00,89.2,59.6,28.97,NE,45,2.2,2.2,37,0.00,,,0.00,VWS V13.01,2013-07-23 20:00:00,
2013-07-23 15:04:00,89.4,59.7,28.97,NNE,29,4.0,4.0,37,0.00,,,0.00,VWS V13.01,2013-07-23 20:04:00,
2013-07-23 15:06:00,89.4,59.7,28.97,North,353,3.1,3.1,37,0.00,,,0.00,VWS V13.01,2013-07-23 20:06:00,
2013-07-23 15:09:00,89.2,59.6,28.97,NE,34,2.7,2.7,37,0.00,,,0.00,VWS V13.01,2013-07-23 20:09:00,
2013-07-23 15:11:00,89.1,59.4,28.97,ENE,62,3.1,3.1,37,0.00,,,0.00,VWS V13.01,2013-07-23 20:11:00,
2013-07-23 15:14:00,88.7,59.1,28.97,NNE,23,2.7,2.7,37,0.00,,,0.00,VWS V13.01,2013-07-23 20:14:00,
2013-07-23 15:15:00,88.7,59.1,28.97,NNW,338,3.1,3.1,37,0.00,,,0.00,VWS V13.01,2013-07-23 20:15:00,
2013-07-23 15:17:00,88.0,58.5,28.97,ENE,75,4.0,4.0,37,0.00,,,0.00,VWS V13.01,2013-07-23 20:17:00,
2013-07-23 15:19:00,87.8,58.3,28.97,East,101,3.1,3.1,37,0.00,,,0.00,VWS V13.01,2013-07-23 20:19:00,
2013-07-23 15:20:00,88.2,58.6,28.97,NNE,20,3.1,3.1,37,0.00,,,0.00,VWS V13.01,2013-07-23 20:20:00,
2013-07-23 15:22:00,88.5,59.0,28.97,North,357,5.4,5.4,37,0.00,,,0.00,VWS V13.01,2013-07-23 20:22:00,
2013-07-23 15:25:00,89.2,59.6,28.97,North,0,5.4,5.4,37,0.00,,,0.00,VWS V13.01,2013-07-23 20:25:00,
2013-07-23 15:26:00,89.2,59.6,29.00,ENE,58,5.4,5.4,37,0.00,,,0.00,VWS V13.01,2013-07-23 20:26:00,
2013-07-23 15:27:00,89.2,59.6,29.00,NE,37,4.0,4.0,37,0.00,,,0.00,VWS V13.01,2013-07-23 20:27:00,
2013-07-23 15:30:00,88.9,59.3,29.00,ENE,78,3.6,3.6,37,0.00,,,0.00,VWS V13.01,2013-07-23 20:30:00,
2013-07-23 15:31:00,88.7,59.1,29.00,North,357,5.4,5.4,37,0.00,,,0.00,VWS V13.01,2013-07-23 20:31:00,
2013-07-23 15:32:00,88.7,59.1,29.00,North,353,3.6,3.6,37,0.00,,,0.00,VWS V13.01,2013-07-23 20:32:00,
2013-07-23 15:35:00,88.3,58.8,29.00,NE,56,3.6,3.6,37,0.00,,,0.00,VWS V13.01,2013-07-23 20:35:00,
2013-07-23 15:37:00,88.3,58.8,29.00,North,10,4.9,4.9,37,0.00,,,0.00,VWS V13.01,2013-07-23 20:37:00,
2013-07-23 15:38:00,88.3,58.8,29.00,NNW,346,3.1,3.1,37,0.00,,,0.00,VWS V13.01,2013-07-23 20:38:00,
2013-07-23 15:40:00,88.0,58.5,29.00,NNE,18,4.0,4.0,37,0.00,,,0.00,VWS V13.01,2013-07-23 20:40:00,
2013-07-23 15:42:00,87.6,62.4,29.00,North,350,5.4,5.4,43,0.00,,,0.00,VWS V13.01,2013-07-23 20:42:00,
2013-07-23 15:44:00,87.6,62.4,29.00,East,82,3.1,3.1,43,0.00,,,0.00,VWS V13.01,2013-07-23 20:44:00,
2013-07-23 15:45:00,87.1,61.9,29.00,East,92,6.3,6.3,43,0.00,,,0.00,VWS V13.01,2013-07-23 20:45:00,
2013-07-23 15:48:00,87.6,62.4,29.00,NW,325,3.6,3.6,43,0.00,,,0.00,VWS V13.01,2013-07-23 20:48:00,
2013-07-23 15:49:00,87.6,62.4,29.00,North,357,0.0,0.0,43,0.00,,,0.00,VWS V13.01,2013-07-23 20:49:00,
2013-07-23 15:50:00,87.4,62.2,29.00,NNW,340,3.1,3.1,43,0.00,,,0.00,VWS V13.01,2013-07-23 20:50:00,
2013-07-23 15:53:00,86.5,61.4,29.00,ESE,108,5.4,5.4,43,0.00,,,0.00,VWS V13.01,2013-07-23 20:53:00,
2013-07-23 15:54:00,86.0,60.9,29.00,ENE,75,5.8,5.8,43,0.00,,,0.00,VWS V13.01,2013-07-23 20:54:00,
2013-07-23 15:55:00,86.0,60.9,28.97,ENE,73,3.1,3.1,43,0.00,,,0.00,VWS V13.01,2013-07-23 20:55:00,
2013-07-23 15:58:00,86.4,61.2,28.97,East,80,0.0,0.0,43,0.00,,,0.00,VWS V13.01,2013-07-23 20:58:00,
2013-07-23 15:59:00,86.4,61.2,28.97,East,80,0.0,0.0,43,0.00,,,0.00,VWS V13.01,2013-07-23 20:59:00,
2013-07-23 16:01:00,86.9,61.7,28.97,NE,35,2.7,2.7,43,0.00,,,0.00,VWS V13.01,2013-07-23 21:01:00,
2013-07-23 16:03:00,87.1,61.9,28.97,NE,55,0.0,0.0,43,0.00,,,0.00,VWS V13.01,2013-07-23 21:03:00,
2013-07-23 16:04:00,87.1,61.9,28.97,East,84,4.9,4.9,43,0.00,,,0.00,VWS V13.01,2013-07-23 21:04:00,
2013-07-23 16:06:00,87.1,61.9,28.97,East,91,6.3,6.3,43,0.00,,,0.00,VWS V13.01,2013-07-23 21:06:00,
2013-07-23 16:09:00,86.5,61.4,28.97,East,79,5.4,5.4,43,0.00,,,0.00,VWS V13.01,2013-07-23 21:09:00,
2013-07-23 16:11:00,86.4,61.2,28.97,East,79,4.0,4.0,43,0.00,,,0.00,VWS V13.01,2013-07-23 21:11:00,
2013-07-23 16:14:00,86.4,61.2,28.97,ENE,69,3.6,3.6,43,0.00,,,0.00,VWS V13.01,2013-07-23 21:14:00,
2013-07-23 16:15:00,86.4,61.2,28.97,ENE,66,5.4,5.4,43,0.00,,,0.00,VWS V13.01,2013-07-23 21:15:00,
2013-07-23 16:16:00,85.8,60.8,28.97,ESE,105,7.6,7.6,43,0.00,,,0.00,VWS V13.01,2013-07-23 21:16:00,
2013-07-23 16:19:00,86.0,60.9,28.97,NE,37,5.4,5.4,43,0.00,,,0.00,VWS V13.01,2013-07-23 21:19:00,
2013-07-23 16:20:00,86.0,60.9,28.97,ENE,78,5.8,5.8,43,0.00,,,0.00,VWS V13.01,2013-07-23 21:20:00,
2013-07-23 16:22:00,85.6,60.6,28.97,ENE,78,2.7,2.7,43,0.00,,,0.00,VWS V13.01,2013-07-23 21:22:00,
2013-07-23 16:25:00,86.2,61.1,28.97,NW,313,5.4,5.4,43,0.00,,,0.00,VWS V13.01,2013-07-23 21:25:00,
2013-07-23 16:28:00,86.4,61.2,28.97,ENE,63,4.0,4.0,43,0.00,,,0.00,VWS V13.01,2013-07-23 21:28:00,
2013-07-23 16:30:00,86.4,61.2,28.97,NE,53,2.7,2.7,43,0.00,,,0.00,VWS V13.01,2013-07-23 21:30:00,
2013-07-23 16:31:00,86.5,61.4,28.97,NNE,19,3.1,3.1,43,0.00,,,0.00,VWS V13.01,2013-07-23 21:31:00,
2013-07-23 16:33:00,86.2,61.1,28.97,NE,43,8.3,8.3,43,0.00,,,0.00,VWS V13.01,2013-07-23 21:33:00,
2013-07-23 16:35:00,86.0,60.9,28.97,NE,56,4.0,4.0,43,0.00,,,0.00,VWS V13.01,2013-07-23 21:35:00,
2013-07-23 16:36:00,86.2,61.1,28.97,NE,37,6.3,6.3,43,0.00,,,0.00,VWS V13.01,2013-07-23 21:36:00,
2013-07-23 16:38:00,86.7,61.6,28.97,NNE,19,3.6,3.6,43,0.00,,,0.00,VWS V13.01,2013-07-23 21:38:00,
2013-07-23 16:40:00,86.9,61.7,28.97,NNE,25,7.6,7.6,43,0.00,,,0.00,VWS V13.01,2013-07-23 21:40:00,
2013-07-23 16:41:00,87.1,61.9,28.97,North,353,0.0,0.0,43,0.00,,,0.00,VWS V13.01,2013-07-23 21:41:00,
2013-07-23 16:44:00,87.1,61.9,28.97,ENE,68,0.0,0.0,43,0.00,,,0.00,VWS V13.01,2013-07-23 21:44:00,
2013-07-23 16:45:00,87.1,61.9,28.97,East,94,6.3,6.3,43,0.00,,,0.00,VWS V13.01,2013-07-23 21:45:00,
2013-07-23 16:47:00,87.3,62.1,28.97,North,349,5.8,5.8,43,0.00,,,0.00,VWS V13.01,2013-07-23 21:47:00,
2013-07-23 16:49:00,87.3,62.1,28.97,ENE,61,3.1,3.1,43,0.00,,,0.00,VWS V13.01,2013-07-23 21:49:00,
2013-07-23 16:50:00,87.6,62.4,28.97,ENE,61,0.0,0.0,43,0.00,,,0.00,VWS V13.01,2013-07-23 21:50:00,
2013-07-23 16:52:00,88.2,58.6,28.97,WNW,296,0.0,0.0,37,0.00,,,0.00,VWS V13.01,2013-07-23 21:52:00,
2013-07-23 16:53:00,88.3,58.8,28.97,NE,55,0.0,0.0,37,0.00,,,0.00,VWS V13.01,2013-07-23 21:53:00,
2013-07-23 16:55:00,88.7,59.1,28.97,North,11,3.1,3.1,37,0.00,,,0.00,VWS V13.01,2013-07-23 21:55:00,
2013-07-23 16:57:00,88.7,59.1,28.97,North,0,0.0,0.0,37,0.00,,,0.00,VWS V13.01,2013-07-23 21:57:00,
2013-07-23 16:58:00,88.2,58.6,28.97,ENE,66,0.0,0.0,37,0.00,,,0.00,VWS V13.01,2013-07-23 21:58:00,
2013-07-23 17:00:00,88.3,58.8,28.97,NNE,28,2.2,2.2,37,0.00,,,0.00,VWS V13.01,2013-07-23 22:00:00,
2013-07-23 17:01:00,88.0,58.5,28.97,ENE,64,0.0,0.0,37,0.00,,,0.00,VWS V13.01,2013-07-23 22:01:00,
2013-07-23 17:03:00,87.6,62.4,28.97,ENE,64,0.0,0.0,43,0.00,,,0.00,VWS V13.01,2013-07-23 22:03:00,
2013-07-23 17:04:00,87.3,62.1,28.97,ENE,72,0.0,0.0,43,0.00,,,0.00,VWS V13.01,2013-07-23 22:04:00,
2013-07-23 17:05:00,86.9,61.7,28.97,ENE,57,2.7,2.7,43,0.00,,,0.00,VWS V13.01,2013-07-23 22:05:00,
2013-07-23 17:06:00,87.3,62.1,28.97,NNW,335,6.7,6.7,43,0.00,,,0.00,VWS V13.01,2013-07-23 22:06:00,
2013-07-23 17:08:00,86.9,61.7,28.97,NNW,345,5.4,5.4,43,0.00,,,0.00,VWS V13.01,2013-07-23 22:08:00,
2013-07-23 17:09:00,86.9,61.7,28.97,North,349,5.4,5.4,43,0.00,,,0.00,VWS V13.01,2013-07-23 22:09:00,
2013-07-23 17:11:00,86.9,61.7,28.97,North,353,0.0,0.0,43,0.00,,,0.00,VWS V13.01,2013-07-23 22:11:00,
2013-07-23 17:12:00,86.5,61.4,28.97,ENE,65,3.6,3.6,43,0.00,,,0.00,VWS V13.01,2013-07-23 22:12:00,
2013-07-23 17:13:00,86.5,61.4,28.97,ENE,72,0.0,0.0,43,0.00,,,0.00,VWS V13.01,2013-07-23 22:13:00,
2013-07-23 17:14:00,86.7,61.6,28.97,North,357,0.0,0.0,43,0.00,,,0.00,VWS V13.01,2013-07-23 22:14:00,
2013-07-23 17:16:00,86.5,61.4,28.97,East,80,0.0,0.0,43,0.00,,,0.00,VWS V13.01,2013-07-23 22:16:00,
2013-07-23 17:18:00,86.9,61.7,28.97,NNW,340,0.0,0.0,43,0.00,,,0.00,VWS V13.01,2013-07-23 22:18:00,
2013-07-23 17:19:00,86.7,61.6,28.97,ENE,65,3.6,3.6,43,0.00,,,0.00,VWS V13.01,2013-07-23 22:19:00,
2013-07-23 17:21:00,86.0,60.9,28.97,ENE,70,3.6,3.6,43,0.00,,,0.00,VWS V13.01,2013-07-23 22:21:00,
2013-07-23 17:23:00,86.0,60.9,28.97,ENE,78,5.4,5.4,43,0.00,,,0.00,VWS V13.01,2013-07-23 22:23:00,
2013-07-23 17:25:00,86.2,61.1,28.94,East,82,3.1,3.1,43,0.00,,,0.00,VWS V13.01,2013-07-23 22:25:00,
2013-07-23 17:27:00,86.4,61.2,28.94,ENE,74,0.0,0.0,43,0.00,,,0.00,VWS V13.01,2013-07-23 22:27:00,
2013-07-23 17:29:00,86.4,61.2,28.94,NE,42,3.6,3.6,43,0.00,,,0.00,VWS V13.01,2013-07-23 22:29:00,
2013-07-23 17:30:00,86.4,61.2,28.94,NNE,26,0.0,0.0,43,0.00,,,0.00,VWS V13.01,2013-07-23 22:30:00,
2013-07-23 17:33:00,86.0,60.9,28.94,North,357,6.3,6.3,43,0.00,,,0.00,VWS V13.01,2013-07-23 22:33:00,
2013-07-23 17:34:00,86.2,61.1,28.94,NNW,333,3.1,3.1,43,0.00,,,0.00,VWS V13.01,2013-07-23 22:34:00,
2013-07-23 17:35:00,86.2,61.1,28.94,NNE,13,4.9,4.9,43,0.00,,,0.00,VWS V13.01,2013-07-23 22:35:00,
2013-07-23 17:38:00,86.2,61.1,28.94,North,0,4.0,4.0,43,0.00,,,0.00,VWS V13.01,2013-07-23 22:38:00,
2013-07-23 17:39:00,86.2,61.1,28.94,NE,45,2.7,2.7,43,0.00,,,0.00,VWS V13.01,2013-07-23 22:39:00,
2013-07-23 17:40:00,86.2,61.1,28.94,ENE,73,0.0,0.0,43,0.00,,,0.00,VWS V13.01,2013-07-23 22:40:00,
2013-07-23 17:41:00,86.2,61.1,28.94,ENE,73,3.1,3.1,43,0.00,,,0.00,VWS V13.01,2013-07-23 22:41:00,
2013-07-23 17:43:00,86.4,61.2,28.94,ESE,115,4.9,4.9,43,0.00,,,0.00,VWS V13.01,2013-07-23 22:43:00,
2013-07-23 17:44:00,86.4,61.2,28.94,ENE,70,4.0,4.0,43,0.00,,,0.00,VWS V13.01,2013-07-23 22:44:00,
2013-07-23 17:45:00,86.4,61.2,28.94,ENE,64,2.2,2.2,43,0.00,,,0.00,VWS V13.01,2013-07-23 22:45:00,
2013-07-23 17:46:00,86.7,61.6,28.94,ENE,64,0.0,0.0,43,0.00,,,0.00,VWS V13.01,2013-07-23 22:46:00,
2013-07-23 17:48:00,86.7,61.6,28.94,ENE,60,3.1,3.1,43,0.00,,,0.00,VWS V13.01,2013-07-23 22:48:00,
2013-07-23 17:50:00,86.9,61.7,28.94,ENE,60,4.9,4.9,43,0.00,,,0.00,VWS V13.01,2013-07-23 22:50:00,
2013-07-23 17:51:00,87.3,62.1,28.94,ENE,70,3.1,3.1,43,0.00,,,0.00,VWS V13.01,2013-07-23 22:51:00,
2013-07-23 17:54:00,86.9,61.7,28.94,NNE,24,4.0,4.0,43,0.00,,,0.00,VWS V13.01,2013-07-23 22:54:00,
2013-07-23 17:55:00,87.4,62.2,28.94,WNW,299,3.1,3.1,43,0.00,,,0.00,VWS V13.01,2013-07-23 22:55:00,
2013-07-23 17:56:00,87.4,62.2,28.94,East,91,0.0,0.0,43,0.00,,,0.00,VWS V13.01,2013-07-23 22:56:00,
2013-07-23 17:57:00,87.4,62.2,28.94,East,91,0.0,0.0,43,0.00,,,0.00,VWS V13.01,2013-07-23 22:57:00,
2013-07-23 17:59:00,87.1,61.9,28.94,NNE,32,0.0,0.0,43,0.00,,,0.00,VWS V13.01,2013-07-23 22:59:00,
2013-07-23 18:00:00,87.1,61.9,28.94,ENE,63,0.0,0.0,43,0.00,,,0.00,VWS V13.01,2013-07-23 23:00:00,
2013-07-23 18:01:00,86.5,61.4,28.94,East,97,4.9,4.9,43,0.00,,,0.00,VWS V13.01,2013-07-23 23:01:00,
2013-07-23 18:02:00,86.4,61.2,28.94,ENE,72,3.1,3.1,43,0.00,,,0.00,VWS V13.01,2013-07-23 23:02:00,
2013-07-23 18:04:00,86.2,61.1,28.94,East,94,2.7,2.7,43,0.00,,,0.00,VWS V13.01,2013-07-23 23:04:00,
2013-07-23 18:06:00,85.8,60.8,28.94,ENE,71,3.6,3.6,43,0.00,,,0.00,VWS V13.01,2013-07-23 23:06:00,
2013-07-23 18:07:00,85.5,60.4,28.94,ENE,64,5.8,5.8,43,0.00,,,0.00,VWS V13.01,2013-07-23 23:07:00,
2013-07-23 18:08:00,85.5,60.4,28.94,NE,36,4.0,4.0,43,0.00,,,0.00,VWS V13.01,2013-07-23 23:08:00,
2013-07-23 18:09:00,85.6,60.6,28.94,East,89,0.0,0.0,43,0.00,,,0.00,VWS V13.01,2013-07-23 23:09:00,
2013-07-23 18:12:00,85.3,60.3,28.94,East,90,4.0,4.0,43,0.00,,,0.00,VWS V13.01,2013-07-23 23:12:00,
2013-07-23 18:13:00,85.5,60.4,28.94,NE,56,0.0,0.0,43,0.00,,,0.00,VWS V13.01,2013-07-23 23:13:00,
2013-07-23 18:14:00,85.5,60.4,28.94,ENE,67,0.0,0.0,43,0.00,,,0.00,VWS V13.01,2013-07-23 23:14:00,
2013-07-23 18:15:00,85.3,60.3,28.94,ENE,70,3.6,3.6,43,0.00,,,0.00,VWS V13.01,2013-07-23 23:15:00,
2013-07-23 18:17:00,85.6,60.6,28.94,ENE,69,0.0,0.0,43,0.00,,,0.00,VWS V13.01,2013-07-23 23:17:00,
2013-07-23 18:19:00,85.8,60.8,28.94,North,357,0.0,0.0,43,0.00,,,0.00,VWS V13.01,2013-07-23 23:19:00,
2013-07-23 18:20:00,85.6,60.6,28.94,NE,47,0.0,0.0,43,0.00,,,0.00,VWS V13.01,2013-07-23 23:20:00,
2013-07-23 18:22:00,85.8,60.8,28.94,North,0,0.0,0.0,43,0.00,,,0.00,VWS V13.01,2013-07-23 23:22:00,
2013-07-23 18:24:00,85.8,60.8,28.94,NE,34,0.0,0.0,43,0.00,,,0.00,VWS V13.01,2013-07-23 23:24:00,
2013-07-23 18:25:00,85.6,60.6,28.91,NE,36,2.7,2.7,43,0.00,,,0.00,VWS V13.01,2013-07-23 23:25:00,
2013-07-23 18:28:00,85.6,60.6,28.91,NNE,17,0.0,0.0,43,0.00,,,0.00,VWS V13.01,2013-07-23 23:28:00,
2013-07-23 18:30:00,85.6,60.6,28.91,North,349,0.0,0.0,43,0.00,,,0.00,VWS V13.01,2013-07-23 23:30:00,
2013-07-23 18:34:00,85.6,60.6,28.91,NNW,345,4.9,4.9,43,0.00,,,0.00,VWS V13.01,2013-07-23 23:34:00,
2013-07-23 18:35:00,85.5,60.4,28.91,NE,49,2.7,2.7,43,0.00,,,0.00,VWS V13.01,2013-07-23 23:35:00,
2013-07-23 18:37:00,85.5,60.4,28.91,East,82,3.6,3.6,43,0.00,,,0.00,VWS V13.01,2013-07-23 23:37:00,
2013-07-23 18:39:00,85.3,60.3,28.91,North,357,3.1,3.1,43,0.00,,,0.00,VWS V13.01,2013-07-23 23:39:00,
2013-07-23 18:40:00,85.3,60.3,28.94,NNE,19,3.1,3.1,43,0.00,,,0.00,VWS V13.01,2013-07-23 23:40:00,
2013-07-23 18:43:00,85.3,60.3,28.94,NE,48,2.7,2.7,43,0.00,,,0.00,VWS V13.01,2013-07-23 23:43:00,
2013-07-23 18:45:00,85.1,60.1,28.94,East,93,0.0,0.0,43,0.00,,,0.00,VWS V13.01,2013-07-23 23:45:00,
2013-07-23 18:46:00,84.9,60.0,28.94,North,0,3.1,3.1,43,0.00,,,0.00,VWS V13.01,2013-07-23 23:46:00,
2013-07-23 18:48:00,84.9,60.0,28.94,NW,322,5.4,5.4,43,0.00,,,0.00,VWS V13.01,2013-07-23 23:48:00,
2013-07-23 18:50:00,84.9,60.0,28.94,North,0,2.2,2.2,43,0.00,,,0.00,VWS V13.01,2013-07-23 23:50:00,
2013-07-23 18:51:00,84.9,60.0,28.94,North,350,3.6,3.6,43,0.00,,,0.00,VWS V13.01,2013-07-23 23:51:00,
2013-07-23 18:53:00,85.1,60.1,28.94,North,0,3.1,3.1,43,0.00,,,0.00,VWS V13.01,2013-07-23 23:53:00,
2013-07-23 18:56:00,84.9,60.0,28.94,North,1,5.8,5.8,43,0.00,,,0.00,VWS V13.01,2013-07-23 23:56:00,
2013-07-23 18:57:00,84.9,60.0,28.94,North,357,0.0,0.0,43,0.00,,,0.00,VWS V13.01,2013-07-23 23:57:00,
2013-07-23 18:59:00,84.7,59.8,28.94,North,353,4.0,4.0,43,0.00,,,0.00,VWS V13.01,2013-07-23 23:59:00,
2013-07-23 19:01:00,84.7,59.8,28.94,North,0,3.1,3.1,43,0.00,,,0.00,VWS V13.01,2013-07-24 00:01:00,
2013-07-23 19:02:00,84.6,59.6,28.94,ENE,61,2.7,2.7,43,0.00,,,0.00,VWS V13.01,2013-07-24 00:02:00,
2013-07-23 19:04:00,84.6,59.6,28.94,North,9,2.7,2.7,43,0.00,,,0.00,VWS V13.01,2013-07-24 00:04:00,
2013-07-23 19:06:00,84.4,59.5,28.94,East,84,2.2,2.2,43,0.00,,,0.00,VWS V13.01,2013-07-24 00:06:00,
2013-07-23 19:07:00,84.4,59.5,28.94,NE,46,3.1,3.1,43,0.00,,,0.00,VWS V13.01,2013-07-24 00:07:00,
2013-07-23 19:09:00,84.0,59.1,28.94,WNW,288,5.8,5.8,43,0.00,,,0.00,VWS V13.01,2013-07-24 00:09:00,
2013-07-23 19:11:00,84.2,59.3,28.97,ENE,62,3.1,3.1,43,0.00,,,0.00,VWS V13.01,2013-07-24 00:11:00,
2013-07-23 19:12:00,84.2,59.3,28.97,ENE,72,0.0,0.0,43,0.00,,,0.00,VWS V13.01,2013-07-24 00:12:00,
2013-07-23 19:13:00,84.2,59.3,28.97,ENE,72,0.0,0.0,43,0.00,,,0.00,VWS V13.01,2013-07-24 00:13:00,
2013-07-23 19:15:00,84.6,59.6,28.97,NNE,16,0.0,0.0,43,0.00,,,0.00,VWS V13.01,2013-07-24 00:15:00,
2013-07-23 19:16:00,84.9,60.0,28.97,NNE,14,0.0,0.0,43,0.00,,,0.00,VWS V13.01,2013-07-24 00:16:00,
2013-07-23 19:18:00,85.1,60.1,28.97,NNE,19,3.1,3.1,43,0.00,,,0.00,VWS V13.01,2013-07-24 00:18:00,
2013-07-23 19:19:00,85.3,60.3,28.97,NE,56,3.1,3.1,43,0.00,,,0.00,VWS V13.01,2013-07-24 00:19:00,
2013-07-23 19:21:00,85.1,60.1,28.97,ENE,57,0.0,0.0,43,0.00,,,0.00,VWS V13.01,2013-07-24 00:21:00,
2013-07-23 19:22:00,85.3,60.3,28.97,North,9,0.0,0.0,43,0.00,,,0.00,VWS V13.01,2013-07-24 00:22:00,
2013-07-23 19:23:00,84.7,59.8,28.97,ENE,78,4.9,4.9,43,0.00,,,0.00,VWS V13.01,2013-07-24 00:23:00,
2013-07-23 19:24:00,84.9,60.0,28.97,ENE,62,2.2,2.2,43,0.00,,,0.00,VWS V13.01,2013-07-24 00:24:00,
2013-07-23 19:26:00,85.1,60.1,28.97,NE,54,0.0,0.0,43,0.00,,,0.00,VWS V13.01,2013-07-24 00:26:00,
2013-07-23 19:27:00,84.7,59.8,28.97,ENE,74,3.6,3.6,43,0.00,,,0.00,VWS V13.01,2013-07-24 00:27:00,
2013-07-23 19:29:00,84.2,59.3,28.97,ENE,70,0.0,0.0,43,0.00,,,0.00,VWS V13.01,2013-07-24 00:29:00,
2013-07-23 19:31:00,83.7,58.8,28.97,ENE,68,0.0,0.0,43,0.00,,,0.00,VWS V13.01,2013-07-24 00:31:00,
2013-07-23 19:33:00,83.5,58.7,28.97,NE,54,4.0,4.0,43,0.00,,,0.00,VWS V13.01,2013-07-24 00:33:00,
2013-07-23 19:34:00,83.8,59.0,28.97,ESE,108,2.2,2.2,43,0.00,,,0.00,VWS V13.01,2013-07-24 00:34:00,
2013-07-23 19:37:00,84.2,59.3,28.97,North,353,0.0,0.0,43,0.00,,,0.00,VWS V13.01,2013-07-24 00:37:00,
2013-07-23 19:38:00,84.2,59.3,28.97,ENE,65,3.1,3.1,43,0.00,,,0.00,VWS V13.01,2013-07-24 00:38:00,
2013-07-23 19:40:00,83.7,58.8,28.97,ENE,62,3.1,3.1,43,0.00,,,0.00,VWS V13.01,2013-07-24 00:40:00,
2013-07-23 19:41:00,83.5,58.7,28.97,NE,46,3.6,3.6,43,0.00,,,0.00,VWS V13.01,2013-07-24 00:41:00,
2013-07-23 19:43:00,82.8,58.0,28.97,East,79,3.6,3.6,43,0.00,,,0.00,VWS V13.01,2013-07-24 00:43:00,
2013-07-23 19:46:00,82.2,61.2,28.97,ENE,58,0.0,0.0,49,0.00,,,0.00,VWS V13.01,2013-07-24 00:46:00,
2013-07-23 19:47:00,82.0,61.0,28.97,NE,43,3.6,3.6,49,0.00,,,0.00,VWS V13.01,2013-07-24 00:47:00,
2013-07-23 19:48:00,81.9,60.8,28.97,NE,44,0.0,0.0,49,0.00,,,0.00,VWS V13.01,2013-07-24 00:48:00,
2013-07-23 19:51:00,81.3,60.3,28.97,ENE,77,3.1,3.1,49,0.00,,,0.00,VWS V13.01,2013-07-24 00:51:00,
2013-07-23 19:53:00,81.1,60.2,28.97,ENE,57,0.0,0.0,49,0.00,,,0.00,VWS V13.01,2013-07-24 00:53:00,
2013-07-23 19:56:00,80.8,59.9,28.97,ENE,76,0.0,0.0,49,0.00,,,0.00,VWS V13.01,2013-07-24 00:56:00,
2013-07-23 19:58:00,80.6,59.7,28.97,North,8,0.0,0.0,49,0.00,,,0.00,VWS V13.01,2013-07-24 00:58:00,
2013-07-23 19:59:00,80.4,59.5,28.97,NE,42,0.0,0.0,49,0.00,,,0.00,VWS V13.01,2013-07-24 00:59:00,
2013-07-23 20:01:00,80.1,59.2,28.97,East,88,3.6,3.6,49,0.00,,,0.00,VWS V13.01,2013-07-24 01:01:00,
2013-07-23 20:03:00,80.1,59.2,28.97,NE,45,0.0,0.0,49,0.00,,,0.00,VWS V13.01,2013-07-24 01:03:00,
2013-07-23 20:04:00,80.1,59.2,28.97,NE,45,0.0,0.0,49,0.00,,,0.00,VWS V13.01,2013-07-24 01:04:00,
2013-07-23 20:06:00,79.9,59.0,28.97,NE,53,2.7,2.7,49,0.00,,,0.00,VWS V13.01,2013-07-24 01:06:00,
2013-07-23 20:09:00,79.7,58.9,28.97,NE,55,3.6,3.6,49,0.00,,,0.00,VWS V13.01,2013-07-24 01:09:00,
2013-07-23 20:12:00,79.5,58.7,28.97,North,0,2.7,2.7,49,0.00,,,0.00,VWS V13.01,2013-07-24 01:12:00,
2013-07-23 20:14:00,79.3,58.5,28.97,ENE,59,0.0,0.0,49,0.00,,,0.00,VWS V13.01,2013-07-24 01:14:00,
2013-07-23 20:17:00,79.2,58.4,28.97,NE,41,0.0,0.0,49,0.00,,,0.00,VWS V13.01,2013-07-24 01:17:00,
2013-07-23 20:20:00,79.2,58.4,28.97,NNE,25,0.0,0.0,49,0.00,,,0.00,VWS V13.01,2013-07-24 01:20:00,
2013-07-23 20:23:00,79.0,58.2,28.97,East,81,0.0,0.0,49,0.00,,,0.00,VWS V13.01,2013-07-24 01:23:00,
2013-07-23 20:25:00,78.8,58.0,29.00,East,80,0.0,0.0,49,0.00,,,0.00,VWS V13.01,2013-07-24 01:25:00,
2013-07-23 20:28:00,78.6,61.1,29.00,ENE,59,0.0,0.0,55,0.00,,,0.00,VWS V13.01,2013-07-24 01:28:00,
2013-07-23 20:30:00,78.6,61.1,29.00,ENE,59,0.0,0.0,55,0.00,,,0.00,VWS V13.01,2013-07-24 01:30:00,
2013-07-23 20:34:00,78.4,61.0,29.00,North,2,3.1,3.1,55,0.00,,,0.00,VWS V13.01,2013-07-24 01:34:00,
2013-07-23 20:35:00,78.3,60.8,29.00,NNE,29,0.0,0.0,55,0.00,,,0.00,VWS V13.01,2013-07-24 01:35:00,
2013-07-23 20:36:00,78.3,60.8,29.00,NNE,29,0.0,0.0,55,0.00,,,0.00,VWS V13.01,2013-07-24 01:36:00,
2013-07-23 20:39:00,78.1,60.6,29.00,North,0,0.0,0.0,55,0.00,,,0.00,VWS V13.01,2013-07-24 01:39:00,
2013-07-23 20:41:00,78.1,60.6,29.00,WNW,292,0.0,0.0,55,0.00,,,0.00,VWS V13.01,2013-07-24 01:41:00,
2013-07-23 20:45:00,77.7,60.3,29.00,NNE,18,0.0,0.0,55,0.00,,,0.00,VWS V13.01,2013-07-24 01:45:00,
2013-07-23 20:46:00,77.7,60.3,29.00,NNE,18,0.0,0.0,55,0.00,,,0.00,VWS V13.01,2013-07-24 01:46:00,
2013-07-23 20:47:00,77.7,60.3,29.00,NNE,18,0.0,0.0,55,0.00,,,0.00,VWS V13.01,2013-07-24 01:47:00,
2013-07-23 20:50:00,77.5,60.1,29.00,NNE,18,0.0,0.0,55,0.00,,,0.00,VWS V13.01,2013-07-24 01:50:00,
2013-07-23 20:52:00,77.4,60.0,29.00,NNE,18,0.0,0.0,55,0.00,,,0.00,VWS V13.01,2013-07-24 01:52:00,
2013-07-23 20:55:00,77.2,59.8,29.00,NNE,18,0.0,0.0,55,0.00,,,0.00,VWS V13.01,2013-07-24 01:55:00,
2013-07-23 20:57:00,77.0,59.6,29.00,NNE,18,0.0,0.0,55,0.00,,,0.00,VWS V13.01,2013-07-24 01:57:00,
2013-07-23 20:58:00,77.0,59.6,29.00,NNE,18,0.0,0.0,55,0.00,,,0.00,VWS V13.01,2013-07-24 01:58:00,
2013-07-23 21:01:00,76.8,59.5,29.00,NNE,18,0.0,0.0,55,0.00,,,0.00,VWS V13.01,2013-07-24 02:01:00,
2013-07-23 21:02:00,76.8,59.5,29.00,NNE,18,0.0,0.0,55,0.00,,,0.00,VWS V13.01,2013-07-24 02:02:00,
2013-07-23 21:03:00,76.6,59.3,29.00,NNE,18,0.0,0.0,55,0.00,,,0.00,VWS V13.01,2013-07-24 02:03:00,
2013-07-23 21:07:00,76.6,59.3,29.00,NNE,18,0.0,0.0,55,0.00,,,0.00,VWS V13.01,2013-07-24 02:07:00,
2013-07-23 21:08:00,76.6,59.3,29.00,NNE,18,0.0,0.0,55,0.00,,,0.00,VWS V13.01,2013-07-24 02:08:00,
2013-07-23 21:09:00,76.5,59.1,29.00,NNE,18,0.0,0.0,55,0.00,,,0.00,VWS V13.01,2013-07-24 02:09:00,
2013-07-23 21:13:00,76.5,59.1,29.00,NNW,348,0.0,0.0,55,0.00,,,0.00,VWS V13.01,2013-07-24 02:13:00,
2013-07-23 21:14:00,76.5,59.1,29.00,NNW,348,0.0,0.0,55,0.00,,,0.00,VWS V13.01,2013-07-24 02:14:00,
2013-07-23 21:18:00,76.1,58.8,29.00,NNW,348,0.0,0.0,55,0.00,,,0.00,VWS V13.01,2013-07-24 02:18:00,
2013-07-23 21:19:00,76.1,58.8,29.00,NNW,348,0.0,0.0,55,0.00,,,0.00,VWS V13.01,2013-07-24 02:19:00,
2013-07-23 21:24:00,75.9,58.6,29.00,NNW,348,0.0,0.0,55,0.00,,,0.00,VWS V13.01,2013-07-24 02:24:00,
2013-07-23 21:29:00,75.7,58.4,29.00,NNW,348,0.0,0.0,55,0.00,,,0.00,VWS V13.01,2013-07-24 02:29:00,
2013-07-23 21:30:00,75.7,58.4,29.00,NNW,348,0.0,0.0,55,0.00,,,0.00,VWS V13.01,2013-07-24 02:30:00,
2013-07-23 21:35:00,75.7,58.4,29.00,NNE,24,0.0,0.0,55,0.00,,,0.00,VWS V13.01,2013-07-24 02:35:00,
2013-07-23 21:36:00,75.7,58.4,29.00,NNE,24,0.0,0.0,55,0.00,,,0.00,VWS V13.01,2013-07-24 02:36:00,
2013-07-23 21:37:00,75.7,58.4,29.00,North,357,0.0,0.0,55,0.00,,,0.00,VWS V13.01,2013-07-24 02:37:00,
2013-07-23 21:40:00,75.7,58.4,29.00,North,357,0.0,0.0,55,0.00,,,0.00,VWS V13.01,2013-07-24 02:40:00,
2013-07-23 21:41:00,75.7,58.4,29.00,North,357,0.0,0.0,55,0.00,,,0.00,VWS V13.01,2013-07-24 02:41:00,
2013-07-23 21:42:00,75.7,58.4,29.00,North,357,0.0,0.0,55,0.00,,,0.00,VWS V13.01,2013-07-24 02:42:00,
2013-07-23 21:46:00,75.6,58.3,29.00,North,353,0.0,0.0,55,0.00,,,0.00,VWS V13.01,2013-07-24 02:46:00,
2013-07-23 21:47:00,75.6,58.3,29.00,North,353,0.0,0.0,55,0.00,,,0.00,VWS V13.01,2013-07-24 02:47:00,
2013-07-23 21:51:00,75.4,58.1,29.00,North,350,0.0,0.0,55,0.00,,,0.00,VWS V13.01,2013-07-24 02:51:00,
2013-07-23 21:52:00,75.4,58.1,29.00,NNW,346,0.0,0.0,55,0.00,,,0.00,VWS V13.01,2013-07-24 02:52:00,
2013-07-23 21:53:00,75.4,58.1,29.00,NNW,346,0.0,0.0,55,0.00,,,0.00,VWS V13.01,2013-07-24 02:53:00,
2013-07-23 21:56:00,75.2,57.9,29.00,North,5,0.0,0.0,55,0.00,,,0.00,VWS V13.01,2013-07-24 02:56:00,
2013-07-23 21:57:00,75.2,57.9,29.00,North,353,0.0,0.0,55,0.00,,,0.00,VWS V13.01,2013-07-24 02:57:00,
2013-07-23 21:58:00,75.2,57.9,29.00,North,353,0.0,0.0,55,0.00,,,0.00,VWS V13.01,2013-07-24 02:58:00,
2013-07-23 22:01:00,75.0,57.8,29.00,NNW,339,3.1,3.1,55,0.00,,,0.00,VWS V13.01,2013-07-24 03:01:00,
2013-07-23 22:03:00,75.0,57.8,29.00,NNW,348,2.7,2.7,55,0.00,,,0.00,VWS V13.01,2013-07-24 03:03:00,
2013-07-23 22:04:00,75.0,57.8,29.00,NNW,331,0.0,0.0,55,0.00,,,0.00,VWS V13.01,2013-07-24 03:04:00,
2013-07-23 22:07:00,74.8,57.6,29.00,North,353,3.1,3.1,55,0.00,,,0.00,VWS V13.01,2013-07-24 03:07:00,
2013-07-23 22:08:00,75.0,57.8,29.00,North,353,5.8,5.8,55,0.00,,,0.00,VWS V13.01,2013-07-24 03:08:00,
2013-07-23 22:09:00,74.8,57.6,29.00,East,92,3.6,3.6,55,0.00,,,0.00,VWS V13.01,2013-07-24 03:09:00,
2013-07-23 22:12:00,74.8,57.6,29.00,North,350,2.2,2.2,55,0.00,,,0.00,VWS V13.01,2013-07-24 03:12:00,
2013-07-23 22:13:00,74.8,57.6,29.00,North,0,0.0,0.0,55,0.00,,,0.00,VWS V13.01,2013-07-24 03:13:00,
2013-07-23 22:14:00,74.7,57.4,29.00,North,350,2.7,2.7,55,0.00,,,0.00,VWS V13.01,2013-07-24 03:14:00,
2013-07-23 22:15:00,74.7,57.4,29.00,North,350,0.0,0.0,55,0.00,,,0.00,VWS V13.01,2013-07-24 03:15:00,
2013-07-23 22:17:00,74.7,57.4,29.00,North,0,0.0,0.0,55,0.00,,,0.00,VWS V13.01,2013-07-24 03:17:00,
2013-07-23 22:19:00,74.5,57.3,29.00,North,357,0.0,0.0,55,0.00,,,0.00,VWS V13.01,2013-07-24 03:19:00,
2013-07-23 22:20:00,74.5,57.3,29.00,North,0,2.2,2.2,55,0.00,,,0.00,VWS V13.01,2013-07-24 03:20:00,
2013-07-23 22:23:00,74.5,57.3,29.00,NE,40,0.0,0.0,55,0.00,,,0.00,VWS V13.01,2013-07-24 03:23:00,
2013-07-23 22:24:00,74.5,57.3,29.00,NNE,28,3.6,3.6,55,0.00,,,0.00,VWS V13.01,2013-07-24 03:24:00,
2013-07-23 22:25:00,74.3,57.1,29.00,NE,37,0.0,0.0,55,0.00,,,0.00,VWS V13.01,2013-07-24 03:25:00,
2013-07-23 22:28:00,74.3,57.1,29.00,ESE,106,0.0,0.0,55,0.00,,,0.00,VWS V13.01,2013-07-24 03:28:00,
2013-07-23 22:29:00,74.1,56.9,29.00,East,101,0.0,0.0,55,0.00,,,0.00,VWS V13.01,2013-07-24 03:29:00,
2013-07-23 22:30:00,74.3,57.1,29.00,North,353,0.0,0.0,55,0.00,,,0.00,VWS V13.01,2013-07-24 03:30:00,
2013-07-23 22:34:00,74.1,56.9,29.00,North,353,0.0,0.0,55,0.00,,,0.00,VWS V13.01,2013-07-24 03:34:00,
2013-07-23 22:35:00,74.1,56.9,29.00,NNE,17,0.0,0.0,55,0.00,,,0.00,VWS V13.01,2013-07-24 03:35:00,
2013-07-23 22:39:00,74.1,56.9,29.00,NNE,22,0.0,0.0,55,0.00,,,0.00,VWS V13.01,2013-07-24 03:39:00,
2013-07-23 22:40:00,74.1,56.9,29.00,NNE,12,5.4,5.4,55,0.00,,,0.00,VWS V13.01,2013-07-24 03:40:00,
2013-07-23 22:42:00,74.1,56.9,29.00,NNW,337,5.8,5.8,55,0.00,,,0.00,VWS V13.01,2013-07-24 03:42:00,
2013-07-23 22:44:00,74.1,56.9,29.00,NE,45,3.1,3.1,55,0.00,,,0.00,VWS V13.01,2013-07-24 03:44:00,
2013-07-23 22:45:00,74.1,56.9,29.00,North,357,5.4,5.4,55,0.00,,,0.00,VWS V13.01,2013-07-24 03:45:00,
2013-07-23 22:47:00,73.9,56.8,29.00,NE,46,3.1,3.1,55,0.00,,,0.00,VWS V13.01,2013-07-24 03:47:00,
2013-07-23 22:49:00,73.9,56.8,29.00,NNW,336,3.6,3.6,55,0.00,,,0.00,VWS V13.01,2013-07-24 03:49:00,
2013-07-23 22:51:00,73.9,56.8,29.00,North,0,3.6,3.6,55,0.00,,,0.00,VWS V13.01,2013-07-24 03:51:00,
2013-07-23 22:53:00,73.9,56.8,29.00,North,0,0.0,0.0,55,0.00,,,0.00,VWS V13.01,2013-07-24 03:53:00,
2013-07-23 22:55:00,73.9,56.8,29.00,NNE,26,4.0,4.0,55,0.00,,,0.00,VWS V13.01,2013-07-24 03:55:00,
2013-07-23 22:56:00,73.8,56.6,29.00,NNE,18,3.6,3.6,55,0.00,,,0.00,VWS V13.01,2013-07-24 03:56:00,
2013-07-23 22:57:00,73.8,56.6,29.00,North,357,5.4,5.4,55,0.00,,,0.00,VWS V13.01,2013-07-24 03:57:00,
2013-07-23 22:58:00,73.6,56.4,29.00,NE,45,3.1,3.1,55,0.00,,,0.00,VWS V13.01,2013-07-24 03:58:00,
2013-07-23 23:00:00,73.8,56.6,29.00,North,0,2.2,2.2,55,0.00,,,0.00,VWS V13.01,2013-07-24 04:00:00,
2013-07-23 23:01:00,73.8,56.6,29.00,North,353,2.7,2.7,55,0.00,,,0.00,VWS V13.01,2013-07-24 04:01:00,
2013-07-23 23:06:00,73.6,56.4,29.00,North,0,6.3,6.3,55,0.00,,,0.00,VWS V13.01,2013-07-24 04:06:00,
2013-07-23 23:11:00,73.4,56.3,29.00,East,82,2.7,2.7,55,0.00,,,0.00,VWS V13.01,2013-07-24 04:11:00,
2013-07-23 23:16:00,73.2,59.0,29.00,NNE,18,0.0,0.0,61,0.00,,,0.00,VWS V13.01,2013-07-24 04:16:00,
2013-07-23 23:21:00,73.0,58.8,29.00,NNE,25,2.7,2.7,61,0.00,,,0.00,VWS V13.01,2013-07-24 04:21:00,
2013-07-23 23:26:00,73.0,58.8,29.00,NNE,14,3.6,3.6,61,0.00,,,0.00,VWS V13.01,2013-07-24 04:26:00,
2013-07-23 23:31:00,72.7,58.5,29.00,NE,52,3.1,3.1,61,0.00,,,0.00,VWS V13.01,2013-07-24 04:31:00,
2013-07-23 23:32:00,72.7,58.5,29.00,North,0,3.6,3.6,61,0.00,,,0.00,VWS V13.01,2013-07-24 04:32:00,
2013-07-23 23:36:00,72.5,58.3,29.00,ENE,57,0.0,0.0,61,0.00,,,0.00,VWS V13.01,2013-07-24 04:36:00,
2013-07-23 23:37:00,72.5,58.3,29.00,NNE,14,4.5,4.5,61,0.00,,,0.00,VWS V13.01,2013-07-24 04:37:00,
2013-07-23 23:41:00,72.5,58.3,29.00,NNW,331,3.6,3.6,61,0.00,,,0.00,VWS V13.01,2013-07-24 04:41:00,
2013-07-23 23:42:00,72.3,58.1,29.00,North,7,0.0,0.0,61,0.00,,,0.00,VWS V13.01,2013-07-24 04:42:00,
2013-07-23 23:46:00,72.3,58.1,29.00,NE,36,2.2,2.2,61,0.00,,,0.00,VWS V13.01,2013-07-24 04:46:00,
2013-07-23 23:47:00,72.1,58.0,29.00,NE,44,4.9,4.9,61,0.00,,,0.00,VWS V13.01,2013-07-24 04:47:00,
2013-07-23 23:51:00,72.1,58.0,29.00,NNE,33,3.6,3.6,61,0.00,,,0.00,VWS V13.01,2013-07-24 04:51:00,
2013-07-23 23:52:00,72.1,58.0,29.00,NNE,33,0.0,0.0,61,0.00,,,0.00,VWS V13.01,2013-07-24 04:52:00,
2013-07-23 23:56:00,72.1,58.0,29.00,North,357,2.2,2.2,61,0.00,,,0.00,VWS V13.01,2013-07-24 04:56:00,
2013-07-23 23:57:00,72.1,58.0,29.00,NNW,340,4.0,4.0,61,0.00,,,0.00,VWS V13.01,2013-07-24 04:57:00,